Wetterdaten: Dienstag, 30.05.2023
Datum Zeit Temp. Aussen Temp. o. S. Temp +5cm Feuchte Auss Luftdruck Regen Sonnenschein Regendauer Solar Windben Empfang
30.05.2023 00:00 13,8 C 12,8 C 9,4 C 65 % 1024,8 hPa 0,0 l/m 0 min 0 min 0 W/m 12,9 km/h (3 Bft) 97,87 %
30.05.2023 00:02 13,8 C 12,8 C 9,4 C 64 % 1024,8 hPa 0,0 l/m 0 min 0 min 0 W/m 12,9 km/h (3 Bft) 100,00 %
30.05.2023 00:04 13,8 C 12,8 C 9,4 C 65 % 1024,8 hPa 0,0 l/m 0 min 0 min 0 W/m 9,7 km/h (2 Bft) 100,00 %
30.05.2023 00:07 13,7 C 12,8 C 9,4 C 65 % 1024,9 hPa 0,0 l/m 0 min 0 min 0 W/m 19,3 km/h (3 Bft) 100,00 %
30.05.2023 00:08 13,7 C 12,8 C 9,4 C 65 % 1024,9 hPa 0,0 l/m 0 min 0 min 0 W/m 19,3 km/h (3 Bft) 99,00 %
30.05.2023 00:12 13,6 C 12,8 C 9,4 C 65 % 1024,9 hPa 0,0 l/m 0 min 0 min 0 W/m 12,9 km/h (3 Bft) 100,00 %
30.05.2023 00:18 13,5 C 12,8 C 9,4 C 65 % 1025,0 hPa 0,0 l/m 0 min 0 min 0 W/m 19,3 km/h (3 Bft) 100,00 %
30.05.2023 00:20 13,4 C 12,8 C 9,4 C 65 % 1025,1 hPa 0,0 l/m 0 min 0 min 0 W/m 9,7 km/h (2 Bft) 100,00 %
30.05.2023 00:22 13,4 C 12,2 C 9,4 C 66 % 1025,1 hPa 0,0 l/m 0 min 0 min 0 W/m 12,9 km/h (3 Bft) 100,00 %
30.05.2023 00:24 13,4 C 12,2 C 9,4 C 66 % 1025,1 hPa 0,0 l/m 0 min 0 min 0 W/m 9,7 km/h (2 Bft) 100,00 %
30.05.2023 00:26 13,3 C 12,2 C 9,4 C 66 % 1025,1 hPa 0,0 l/m 0 min 0 min 0 W/m 12,9 km/h (3 Bft) 97,87 %
30.05.2023 00:28 13,3 C 12,2 C 9,4 C 66 % 1025,1 hPa 0,0 l/m 0 min 0 min 0 W/m 12,9 km/h (3 Bft) 97,87 %
30.05.2023 00:34 13,1 C 12,2 C 9,4 C 66 % 1025,2 hPa 0,0 l/m 0 min 0 min 0 W/m 12,9 km/h (3 Bft) 95,00 %
30.05.2023 00:36 13,1 C 12,2 C 9,4 C 67 % 1025,2 hPa 0,0 l/m 0 min 0 min 0 W/m 16,1 km/h (3 Bft) 100,00 %
30.05.2023 00:38 13,1 C 12,2 C 9,4 C 67 % 1025,2 hPa 0,0 l/m 0 min 0 min 0 W/m 6,4 km/h (2 Bft) 97,87 %
30.05.2023 00:40 13,1 C 12,2 C 9,4 C 67 % 1025,2 hPa 0,0 l/m 0 min 0 min 0 W/m 12,9 km/h (3 Bft) 100,00 %
30.05.2023 00:42 13,0 C 12,2 C 9,4 C 67 % 1025,2 hPa 0,0 l/m 0 min 0 min 0 W/m 9,7 km/h (2 Bft) 100,00 %
30.05.2023 00:47 12,9 C 12,2 C 8,9 C 67 % 1025,2 hPa 0,0 l/m 0 min 0 min 0 W/m 16,1 km/h (3 Bft) 100,00 %
30.05.2023 00:48 12,9 C 12,2 C 8,9 C 67 % 1025,2 hPa 0,0 l/m 0 min 0 min 0 W/m 9,7 km/h (2 Bft) 100,00 %
30.05.2023 00:50 12,8 C 12,2 C 8,9 C 67 % 1025,3 hPa 0,0 l/m 0 min 0 min 0 W/m 16,1 km/h (3 Bft) 97,87 %
30.05.2023 00:52 12,8 C 11,7 C 8,3 C 68 % 1025,3 hPa 0,0 l/m 0 min 0 min 0 W/m 12,9 km/h (3 Bft) 93,62 %
30.05.2023 00:54 12,8 C 11,7 C 8,3 C 68 % 1025,3 hPa 0,0 l/m 0 min 0 min 0 W/m 12,9 km/h (3 Bft) 97,87 %
30.05.2023 00:56 12,7 C 11,7 C 8,3 C 68 % 1025,3 hPa 0,0 l/m 0 min 0 min 0 W/m 6,4 km/h (2 Bft) 95,74 %
30.05.2023 00:58 12,7 C 11,7 C 8,3 C 68 % 1025,3 hPa 0,0 l/m 0 min 0 min 0 W/m 12,9 km/h (3 Bft) 97,87 %
30.05.2023 01:00 12,7 C 11,7 C 8,3 C 68 % 1025,4 hPa 0,0 l/m 0 min 0 min 0 W/m 9,7 km/h (2 Bft) 97,83 %
30.05.2023 01:02 12,6 C 11,7 C 8,3 C 68 % 1025,3 hPa 0,0 l/m 0 min 0 min 0 W/m 9,7 km/h (2 Bft) 95,74 %
30.05.2023 01:04 12,6 C 11,7 C 8,3 C 68 % 1025,4 hPa 0,0 l/m 0 min 0 min 0 W/m 12,9 km/h (3 Bft) 97,92 %
30.05.2023 01:06 12,6 C 11,7 C 8,3 C 68 % 1025,5 hPa 0,0 l/m 0 min 0 min 0 W/m 6,4 km/h (2 Bft) 97,87 %
30.05.2023 01:08 12,5 C 11,7 C 8,3 C 69 % 1025,5 hPa 0,0 l/m 0 min 0 min 0 W/m 12,9 km/h (3 Bft) 91,49 %
30.05.2023 01:10 12,5 C 11,7 C 8,3 C 69 % 1025,5 hPa 0,0 l/m 0 min 0 min 0 W/m 9,7 km/h (2 Bft) 97,87 %
30.05.2023 01:12 12,4 C 11,7 C 8,3 C 69 % 1025,5 hPa 0,0 l/m 0 min 0 min 0 W/m 6,4 km/h (2 Bft) 95,74 %
30.05.2023 01:14 12,4 C 11,7 C 8,3 C 69 % 1025,5 hPa 0,0 l/m 0 min 0 min 0 W/m 12,9 km/h (3 Bft) 97,83 %
30.05.2023 01:16 12,4 C 11,7 C 8,3 C 69 % 1025,5 hPa 0,0 l/m 0 min 0 min 0 W/m 6,4 km/h (2 Bft) 100,00 %
30.05.2023 01:18 12,3 C 11,7 C 8,3 C 69 % 1025,5 hPa 0,0 l/m 0 min 0 min 0 W/m 9,7 km/h (2 Bft) 97,83 %
30.05.2023 01:20 12,3 C 11,7 C 8,3 C 69 % 1025,5 hPa 0,0 l/m 0 min 0 min 0 W/m 6,4 km/h (2 Bft) 95,74 %
30.05.2023 01:22 12,3 C 11,7 C 8,3 C 69 % 1025,5 hPa 0,0 l/m 0 min 0 min 0 W/m 16,1 km/h (3 Bft) 98,21 %
30.05.2023 01:24 12,3 C 11,7 C 8,3 C 70 % 1025,4 hPa 0,0 l/m 0 min 0 min 0 W/m 6,4 km/h (2 Bft) 97,87 %
30.05.2023 01:26 12,2 C 11,1 C 7,8 C 70 % 1025,5 hPa 0,0 l/m 0 min 0 min 0 W/m 12,9 km/h (3 Bft) 97,83 %
30.05.2023 01:28 12,2 C 11,1 C 7,8 C 70 % 1025,5 hPa 0,0 l/m 0 min 0 min 0 W/m 3,2 km/h (1 Bft) 97,87 %
30.05.2023 01:30 12,2 C 11,1 C 7,8 C 70 % 1025,5 hPa 0,0 l/m 0 min 0 min 0 W/m 6,4 km/h (2 Bft) 97,87 %
30.05.2023 01:32 12,2 C 11,1 C 7,8 C 70 % 1025,5 hPa 0,0 l/m 0 min 0 min 0 W/m 3,2 km/h (1 Bft) 97,87 %
30.05.2023 01:34 12,1 C 11,1 C 7,8 C 70 % 1025,6 hPa 0,0 l/m 0 min 0 min 0 W/m 6,4 km/h (2 Bft) 95,74 %
30.05.2023 01:36 12,1 C 11,1 C 7,8 C 70 % 1025,6 hPa 0,0 l/m 0 min 0 min 0 W/m 6,4 km/h (2 Bft) 97,87 %
30.05.2023 01:38 12,1 C 11,1 C 7,8 C 70 % 1025,6 hPa 0,0 l/m 0 min 0 min 0 W/m 6,4 km/h (2 Bft) 95,74 %
30.05.2023 01:40 12,0 C 11,1 C 7,8 C 70 % 1025,6 hPa 0,0 l/m 0 min 0 min 0 W/m 6,4 km/h (2 Bft) 97,83 %
30.05.2023 01:42 12,0 C 11,1 C 7,8 C 71 % 1025,6 hPa 0,0 l/m 0 min 0 min 0 W/m 6,4 km/h (2 Bft) 97,87 %
30.05.2023 01:44 11,9 C 11,1 C 7,8 C 71 % 1025,6 hPa 0,0 l/m 0 min 0 min 0 W/m 6,4 km/h (2 Bft) 95,83 %
30.05.2023 01:46 11,9 C 11,1 C 7,8 C 71 % 1025,6 hPa 0,0 l/m 0 min 0 min 0 W/m 6,4 km/h (2 Bft) 97,87 %
30.05.2023 01:48 11,9 C 11,1 C 7,8 C 71 % 1025,6 hPa 0,0 l/m 0 min 0 min 0 W/m 3,2 km/h (1 Bft) 100,00 %
30.05.2023 01:50 11,9 C 10,6 C 7,8 C 71 % 1025,6 hPa 0,0 l/m 0 min 0 min 0 W/m 9,7 km/h (2 Bft) 100,00 %
30.05.2023 01:52 11,8 C 10,6 C 7,8 C 71 % 1025,7 hPa 0,0 l/m 0 min 0 min 0 W/m 9,7 km/h (2 Bft) 100,00 %
30.05.2023 01:54 11,8 C 10,6 C 7,8 C 71 % 1025,7 hPa 0,0 l/m 0 min 0 min 0 W/m 12,9 km/h (3 Bft) 100,00 %
30.05.2023 01:56 11,8 C 10,6 C 7,8 C 71 % 1025,7 hPa 0,0 l/m 0 min 0 min 0 W/m 6,4 km/h (2 Bft) 100,00 %
30.05.2023 01:58 11,7 C 10,6 C 7,8 C 71 % 1025,7 hPa 0,0 l/m 0 min 0 min 0 W/m 9,7 km/h (2 Bft) 100,00 %
30.05.2023 02:00 11,7 C 10,6 C 7,2 C 71 % 1025,8 hPa 0,0 l/m 0 min 0 min 0 W/m 12,9 km/h (3 Bft) 100,00 %
30.05.2023 02:02 11,7 C 10,6 C 7,2 C 72 % 1025,7 hPa 0,0 l/m 0 min 0 min 0 W/m 6,4 km/h (2 Bft) 100,00 %
30.05.2023 02:04 11,6 C 10,6 C 7,2 C 72 % 1025,7 hPa 0,0 l/m 0 min 0 min 0 W/m 6,4 km/h (2 Bft) 100,00 %
30.05.2023 02:06 11,6 C 10,6 C 7,2 C 72 % 1025,8 hPa 0,0 l/m 0 min 0 min 0 W/m 6,4 km/h (2 Bft) 100,00 %
30.05.2023 02:08 11,6 C 10,6 C 7,2 C 72 % 1025,8 hPa 0,0 l/m 0 min 0 min 0 W/m 3,2 km/h (1 Bft) 97,83 %
30.05.2023 02:10 11,6 C 10,6 C 7,2 C 72 % 1025,8 hPa 0,0 l/m 0 min 0 min 0 W/m 6,4 km/h (2 Bft) 100,00 %
30.05.2023 02:17 11,4 C 10,6 C 7,2 C 73 % 1025,9 hPa 0,0 l/m 0 min 0 min 0 W/m 6,4 km/h (2 Bft) 96,36 %
30.05.2023 02:18 11,4 C 10,6 C 7,2 C 73 % 1025,9 hPa 0,0 l/m 0 min 0 min 0 W/m 6,4 km/h (2 Bft) 100,00 %
30.05.2023 02:20 11,4 C 10,6 C 7,2 C 73 % 1026,0 hPa 0,0 l/m 0 min 0 min 0 W/m 6,4 km/h (2 Bft) 95,74 %
30.05.2023 02:22 11,4 C 10,6 C 7,2 C 73 % 1025,9 hPa 0,0 l/m 0 min 0 min 0 W/m 6,4 km/h (2 Bft) 100,00 %
30.05.2023 02:24 11,3 C 10,6 C 7,2 C 73 % 1026,0 hPa 0,0 l/m 0 min 0 min 0 W/m 6,4 km/h (2 Bft) 95,74 %
30.05.2023 02:26 11,3 C 10,6 C 7,2 C 73 % 1026,0 hPa 0,0 l/m 0 min 0 min 0 W/m 19,3 km/h (3 Bft) 93,62 %
30.05.2023 02:28 11,3 C 10,6 C 7,2 C 73 % 1026,0 hPa 0,0 l/m 0 min 0 min 0 W/m 12,9 km/h (3 Bft) 93,62 %
30.05.2023 02:30 11,2 C 10,6 C 7,2 C 73 % 1026,0 hPa 0,0 l/m 0 min 0 min 0 W/m 9,7 km/h (2 Bft) 95,74 %
30.05.2023 02:32 11,2 C 10,6 C 7,2 C 73 % 1026,0 hPa 0,0 l/m 0 min 0 min 0 W/m 9,7 km/h (2 Bft) 95,65 %
30.05.2023 02:34 11,2 C 10,6 C 7,2 C 73 % 1026,1 hPa 0,0 l/m 0 min 0 min 0 W/m 6,4 km/h (2 Bft) 93,62 %
30.05.2023 02:36 11,2 C 10,0 C 7,2 C 74 % 1026,1 hPa 0,0 l/m 0 min 0 min 0 W/m 19,3 km/h (3 Bft) 95,74 %
30.05.2023 02:38 11,2 C 10,0 C 7,2 C 74 % 1026,1 hPa 0,0 l/m 0 min 0 min 0 W/m 6,4 km/h (2 Bft) 97,87 %
30.05.2023 02:40 11,1 C 10,0 C 7,2 C 74 % 1026,1 hPa 0,0 l/m 0 min 0 min 0 W/m 6,4 km/h (2 Bft) 95,74 %
30.05.2023 02:42 11,1 C 10,0 C 7,2 C 74 % 1026,1 hPa 0,0 l/m 0 min 0 min 0 W/m 6,4 km/h (2 Bft) 95,74 %
30.05.2023 02:44 11,1 C 10,0 C 7,2 C 74 % 1026,1 hPa 0,0 l/m 0 min 0 min 0 W/m 3,2 km/h (1 Bft) 95,74 %
30.05.2023 02:46 11,1 C 10,0 C 7,2 C 74 % 1026,1 hPa 0,0 l/m 0 min 0 min 0 W/m 6,4 km/h (2 Bft) 95,65 %
30.05.2023 02:48 11,1 C 10,0 C 7,2 C 74 % 1026,1 hPa 0,0 l/m 0 min 0 min 0 W/m 3,2 km/h (1 Bft) 95,74 %
30.05.2023 02:50 11,1 C 10,0 C 6,7 C 74 % 1026,0 hPa 0,0 l/m 0 min 0 min 0 W/m 6,4 km/h (2 Bft) 93,62 %
30.05.2023 02:52 11,0 C 10,0 C 6,7 C 74 % 1026,0 hPa 0,0 l/m 0 min 0 min 0 W/m 6,4 km/h (2 Bft) 97,92 %
30.05.2023 02:54 11,0 C 10,0 C 6,7 C 75 % 1026,0 hPa 0,0 l/m 0 min 0 min 0 W/m 3,2 km/h (1 Bft) 97,92 %
30.05.2023 02:56 11,0 C 10,0 C 6,7 C 75 % 1026,0 hPa 0,0 l/m 0 min 0 min 0 W/m 3,2 km/h (1 Bft) 97,87 %
30.05.2023 02:58 10,9 C 10,0 C 6,7 C 75 % 1026,0 hPa 0,0 l/m 0 min 0 min 0 W/m 3,2 km/h (1 Bft) 97,96 %
30.05.2023 03:00 10,9 C 10,0 C 6,7 C 75 % 1026,0 hPa 0,0 l/m 0 min 0 min 0 W/m 3,2 km/h (1 Bft) 97,92 %
30.05.2023 03:02 10,9 C 10,0 C 6,7 C 75 % 1026,0 hPa 0,0 l/m 0 min 0 min 0 W/m 3,2 km/h (1 Bft) 97,87 %
30.05.2023 03:04 10,9 C 10,0 C 6,7 C 75 % 1026,0 hPa 0,0 l/m 0 min 0 min 0 W/m 3,2 km/h (1 Bft) 95,83 %
30.05.2023 03:06 10,8 C 10,0 C 6,7 C 75 % 1026,0 hPa 0,0 l/m 0 min 0 min 0 W/m 6,4 km/h (2 Bft) 97,87 %
30.05.2023 03:08 10,8 C 10,0 C 6,7 C 75 % 1026,1 hPa 0,0 l/m 0 min 0 min 0 W/m 3,2 km/h (1 Bft) 97,87 %
30.05.2023 03:10 10,8 C 10,0 C 6,7 C 75 % 1026,1 hPa 0,0 l/m 0 min 0 min 0 W/m 9,7 km/h (2 Bft) 97,14 %
30.05.2023 03:12 10,8 C 10,0 C 6,7 C 75 % 1026,1 hPa 0,0 l/m 0 min 0 min 0 W/m 9,7 km/h (2 Bft) 97,87 %
30.05.2023 03:14 10,8 C 10,0 C 6,7 C 75 % 1026,1 hPa 0,0 l/m 0 min 0 min 0 W/m 6,4 km/h (2 Bft) 97,87 %
30.05.2023 03:16 10,8 C 10,0 C 6,7 C 76 % 1026,1 hPa 0,0 l/m 0 min 0 min 0 W/m 6,4 km/h (2 Bft) 93,48 %
30.05.2023 03:18 10,7 C 10,0 C 6,7 C 76 % 1026,1 hPa 0,0 l/m 0 min 0 min 0 W/m 6,4 km/h (2 Bft) 97,87 %
30.05.2023 03:20 10,7 C 9,4 C 6,7 C 76 % 1026,1 hPa 0,0 l/m 0 min 0 min 0 W/m 6,4 km/h (2 Bft) 93,62 %
30.05.2023 03:22 10,7 C 9,4 C 6,7 C 76 % 1026,1 hPa 0,0 l/m 0 min 0 min 0 W/m 6,4 km/h (2 Bft) 97,87 %
30.05.2023 03:24 10,6 C 9,4 C 6,7 C 76 % 1026,1 hPa 0,0 l/m 0 min 0 min 0 W/m 3,2 km/h (1 Bft) 97,87 %
30.05.2023 03:26 10,6 C 9,4 C 6,7 C 76 % 1026,0 hPa 0,0 l/m 0 min 0 min 0 W/m 6,4 km/h (2 Bft) 95,74 %
30.05.2023 03:28 10,6 C 9,4 C 6,7 C 77 % 1026,1 hPa 0,0 l/m 0 min 0 min 0 W/m 6,4 km/h (2 Bft) 97,83 %
30.05.2023 03:30 10,6 C 9,4 C 6,7 C 77 % 1026,1 hPa 0,0 l/m 0 min 0 min 0 W/m 6,4 km/h (2 Bft) 97,87 %
30.05.2023 03:32 10,5 C 9,4 C 6,7 C 77 % 1026,1 hPa 0,0 l/m 0 min 0 min 0 W/m 3,2 km/h (1 Bft) 95,74 %
30.05.2023 03:34 10,5 C 9,4 C 6,7 C 77 % 1026,1 hPa 0,0 l/m 0 min 0 min 0 W/m 12,9 km/h (3 Bft) 95,74 %
30.05.2023 03:36 10,4 C 9,4 C 6,1 C 77 % 1026,1 hPa 0,0 l/m 0 min 0 min 0 W/m 6,4 km/h (2 Bft) 97,87 %
30.05.2023 03:38 10,4 C 9,4 C 6,1 C 77 % 1026,0 hPa 0,0 l/m 0 min 0 min 0 W/m 3,2 km/h (1 Bft) 97,87 %
30.05.2023 03:40 10,4 C 9,4 C 6,1 C 77 % 1026,0 hPa 0,0 l/m 0 min 0 min 0 W/m 6,4 km/h (2 Bft) 97,87 %
30.05.2023 03:42 10,4 C 9,4 C 6,1 C 78 % 1026,0 hPa 0,0 l/m 0 min 0 min 0 W/m 3,2 km/h (1 Bft) 95,65 %
30.05.2023 03:44 10,4 C 9,4 C 6,7 C 78 % 1026,0 hPa 0,0 l/m 0 min 0 min 0 W/m 6,4 km/h (2 Bft) 97,87 %
30.05.2023 03:46 10,3 C 9,4 C 6,1 C 78 % 1026,1 hPa 0,0 l/m 0 min 0 min 0 W/m 6,4 km/h (2 Bft) 97,87 %
30.05.2023 03:48 10,3 C 9,4 C 6,1 C 78 % 1026,0 hPa 0,0 l/m 0 min 0 min 0 W/m 6,4 km/h (2 Bft) 97,87 %
30.05.2023 03:50 10,3 C 9,4 C 6,1 C 78 % 1026,1 hPa 0,0 l/m 0 min 0 min 0 W/m 3,2 km/h (1 Bft) 95,74 %
30.05.2023 03:52 10,2 C 9,4 C 6,1 C 78 % 1026,1 hPa 0,0 l/m 0 min 0 min 0 W/m 6,4 km/h (2 Bft) 95,74 %
30.05.2023 03:54 10,2 C 9,4 C 6,1 C 79 % 1026,1 hPa 0,0 l/m 0 min 0 min 0 W/m 3,2 km/h (1 Bft) 97,87 %
30.05.2023 03:56 10,2 C 9,4 C 6,1 C 79 % 1026,1 hPa 0,0 l/m 0 min 0 min 0 W/m 6,4 km/h (2 Bft) 97,83 %
30.05.2023 03:58 10,2 C 8,9 C 6,1 C 79 % 1026,1 hPa 0,0 l/m 0 min 0 min 0 W/m 3,2 km/h (1 Bft) 97,87 %
30.05.2023 04:00 10,1 C 8,9 C 6,1 C 79 % 1026,1 hPa 0,0 l/m 0 min 0 min 0 W/m 6,4 km/h (2 Bft) 93,62 %
30.05.2023 04:02 10,1 C 8,9 C 6,1 C 79 % 1026,1 hPa 0,0 l/m 0 min 0 min 0 W/m 6,4 km/h (2 Bft) 95,74 %
30.05.2023 04:04 10,1 C 8,9 C 6,1 C 79 % 1026,1 hPa 0,0 l/m 0 min 0 min 0 W/m 12,9 km/h (3 Bft) 95,83 %
30.05.2023 04:06 10,1 C 8,9 C 6,1 C 80 % 1026,1 hPa 0,0 l/m 0 min 0 min 0 W/m 6,4 km/h (2 Bft) 98,33 %
30.05.2023 04:08 10,1 C 8,9 C 6,1 C 80 % 1026,2 hPa 0,0 l/m 0 min 0 min 0 W/m 9,7 km/h (2 Bft) 95,56 %
30.05.2023 04:10 10,0 C 8,9 C 6,1 C 80 % 1026,2 hPa 0,0 l/m 0 min 0 min 0 W/m 3,2 km/h (1 Bft) 97,87 %
30.05.2023 04:12 10,0 C 8,9 C 6,1 C 80 % 1026,2 hPa 0,0 l/m 0 min 0 min 0 W/m 3,2 km/h (1 Bft) 97,87 %
30.05.2023 04:14 9,9 C 8,9 C 6,1 C 80 % 1026,2 hPa 0,0 l/m 0 min 0 min 0 W/m 3,2 km/h (1 Bft) 97,87 %
30.05.2023 04:16 9,9 C 8,9 C 6,1 C 80 % 1026,2 hPa 0,0 l/m 0 min 0 min 0 W/m 3,2 km/h (1 Bft) 97,92 %
30.05.2023 04:18 9,9 C 8,9 C 5,6 C 80 % 1026,2 hPa 0,0 l/m 0 min 0 min 0 W/m 3,2 km/h (1 Bft) 97,83 %
30.05.2023 04:20 9,9 C 8,9 C 5,6 C 81 % 1026,2 hPa 0,0 l/m 0 min 0 min 0 W/m 6,4 km/h (2 Bft) 97,22 %
30.05.2023 04:22 9,9 C 8,9 C 5,6 C 81 % 1026,2 hPa 0,0 l/m 0 min 0 min 0 W/m 6,4 km/h (2 Bft) 95,74 %
30.05.2023 04:24 9,9 C 8,9 C 5,6 C 81 % 1026,2 hPa 0,0 l/m 0 min 0 min 0 W/m 3,2 km/h (1 Bft) 97,87 %
30.05.2023 04:26 9,8 C 8,9 C 5,6 C 81 % 1026,2 hPa 0,0 l/m 0 min 0 min 0 W/m 3,2 km/h (1 Bft) 100,00 %
30.05.2023 04:28 9,8 C 8,9 C 5,6 C 81 % 1026,3 hPa 0,0 l/m 0 min 0 min 0 W/m 3,2 km/h (1 Bft) 97,87 %
30.05.2023 04:30 9,8 C 8,9 C 5,6 C 81 % 1026,3 hPa 0,0 l/m 0 min 0 min 0 W/m 3,2 km/h (1 Bft) 97,87 %
30.05.2023 04:32 9,8 C 8,9 C 5,6 C 81 % 1026,3 hPa 0,0 l/m 0 min 0 min 0 W/m 3,2 km/h (1 Bft) 97,87 %
30.05.2023 04:34 9,8 C 8,9 C 5,6 C 81 % 1026,3 hPa 0,0 l/m 0 min 0 min 0 W/m 6,4 km/h (2 Bft) 100,00 %
30.05.2023 04:36 9,7 C 8,9 C 5,6 C 82 % 1026,2 hPa 0,0 l/m 0 min 0 min 0 W/m 6,4 km/h (2 Bft) 97,83 %
30.05.2023 04:38 9,7 C 8,9 C 5,6 C 82 % 1026,3 hPa 0,0 l/m 0 min 0 min 0 W/m 6,4 km/h (2 Bft) 100,00 %
30.05.2023 04:40 9,7 C 8,9 C 5,6 C 82 % 1026,3 hPa 0,0 l/m 0 min 0 min 0 W/m 9,7 km/h (2 Bft) 100,00 %
30.05.2023 04:42 9,7 C 8,9 C 5,6 C 82 % 1026,3 hPa 0,0 l/m 0 min 0 min 0 W/m 6,4 km/h (2 Bft) 97,87 %
30.05.2023 04:44 9,7 C 8,9 C 5,6 C 82 % 1026,3 hPa 0,0 l/m 0 min 0 min 0 W/m 6,4 km/h (2 Bft) 100,00 %
30.05.2023 04:46 9,7 C 8,9 C 5,6 C 82 % 1026,3 hPa 0,0 l/m 0 min 0 min 0 W/m 6,4 km/h (2 Bft) 100,00 %
30.05.2023 04:48 9,6 C 8,9 C 5,6 C 82 % 1026,3 hPa 0,0 l/m 0 min 0 min 0 W/m 6,4 km/h (2 Bft) 97,83 %
30.05.2023 04:50 9,6 C 8,9 C 5,6 C 82 % 1026,2 hPa 0,0 l/m 0 min 0 min 0 W/m 9,7 km/h (2 Bft) 100,00 %
30.05.2023 04:52 9,6 C 8,9 C 5,6 C 83 % 1026,2 hPa 0,0 l/m 0 min 0 min 0 W/m 6,4 km/h (2 Bft) 97,87 %
30.05.2023 04:54 9,6 C 8,9 C 5,6 C 83 % 1026,2 hPa 0,0 l/m 0 min 0 min 0 W/m 6,4 km/h (2 Bft) 100,00 %
30.05.2023 04:56 9,6 C 8,9 C 5,6 C 83 % 1026,3 hPa 0,0 l/m 0 min 0 min 0 W/m 6,4 km/h (2 Bft) 100,00 %
30.05.2023 04:58 9,5 C 8,3 C 5,6 C 83 % 1026,3 hPa 0,0 l/m 0 min 0 min 0 W/m 6,4 km/h (2 Bft) 100,00 %
30.05.2023 05:00 9,5 C 8,3 C 5,6 C 83 % 1026,3 hPa 0,0 l/m 0 min 0 min 0 W/m 6,4 km/h (2 Bft) 100,00 %
30.05.2023 05:02 9,4 C 8,9 C 5,6 C 83 % 1026,4 hPa 0,0 l/m 0 min 0 min 0 W/m 6,4 km/h (2 Bft) 100,00 %
30.05.2023 05:04 9,4 C 8,9 C 5,6 C 84 % 1026,3 hPa 0,0 l/m 0 min 0 min 0 W/m 16,1 km/h (3 Bft) 100,00 %
30.05.2023 05:06 9,4 C 8,9 C 5,6 C 84 % 1026,4 hPa 0,0 l/m 0 min 0 min 0 W/m 6,4 km/h (2 Bft) 98,31 %
30.05.2023 05:08 9,4 C 8,3 C 5,6 C 84 % 1026,4 hPa 0,0 l/m 0 min 0 min 0 W/m 6,4 km/h (2 Bft) 97,14 %
30.05.2023 05:10 9,4 C 8,3 C 5,6 C 84 % 1026,5 hPa 0,0 l/m 0 min 0 min 0 W/m 9,7 km/h (2 Bft) 100,00 %
30.05.2023 05:12 9,4 C 8,3 C 5,6 C 84 % 1026,4 hPa 0,0 l/m 0 min 0 min 0 W/m 3,2 km/h (1 Bft) 100,00 %
30.05.2023 05:14 9,4 C 8,3 C 5,6 C 84 % 1026,4 hPa 0,0 l/m 0 min 0 min 0 W/m 6,4 km/h (2 Bft) 97,87 %
30.05.2023 05:16 9,4 C 8,3 C 5,6 C 84 % 1026,5 hPa 0,0 l/m 0 min 0 min 0 W/m 9,7 km/h (2 Bft) 100,00 %
30.05.2023 05:18 9,4 C 8,3 C 5,6 C 84 % 1026,4 hPa 0,0 l/m 0 min 0 min 0 W/m 6,4 km/h (2 Bft) 97,87 %
30.05.2023 05:20 9,3 C 8,3 C 5,6 C 84 % 1026,4 hPa 0,0 l/m 0 min 0 min 0 W/m 3,2 km/h (1 Bft) 97,87 %
30.05.2023 05:22 9,3 C 8,3 C 5,6 C 84 % 1026,4 hPa 0,0 l/m 0 min 0 min 0 W/m 6,4 km/h (2 Bft) 100,00 %
30.05.2023 05:24 9,3 C 8,3 C 5,6 C 85 % 1026,4 hPa 0,0 l/m 0 min 0 min 0 W/m 6,4 km/h (2 Bft) 100,00 %
30.05.2023 05:26 9,3 C 8,3 C 5,6 C 85 % 1026,3 hPa 0,0 l/m 0 min 0 min 0 W/m 9,7 km/h (2 Bft) 100,00 %
30.05.2023 05:28 9,3 C 8,3 C 5,0 C 85 % 1026,3 hPa 0,0 l/m 0 min 0 min 0 W/m 6,4 km/h (2 Bft) 95,74 %
30.05.2023 05:30 9,3 C 8,3 C 5,6 C 85 % 1026,3 hPa 0,0 l/m 0 min 0 min 0 W/m 16,1 km/h (3 Bft) 100,00 %
30.05.2023 05:32 9,3 C 8,3 C 5,0 C 85 % 1026,3 hPa 0,0 l/m 0 min 0 min 0 W/m 12,9 km/h (3 Bft) 100,00 %
30.05.2023 05:34 9,3 C 8,3 C 5,6 C 85 % 1026,2 hPa 0,0 l/m 0 min 0 min 0 W/m 6,4 km/h (2 Bft) 97,87 %
30.05.2023 05:36 9,3 C 8,3 C 5,0 C 85 % 1026,2 hPa 0,0 l/m 0 min 0 min 5 W/m 12,9 km/h (3 Bft) 100,00 %
30.05.2023 05:38 9,3 C 8,3 C 5,0 C 85 % 1026,2 hPa 0,0 l/m 0 min 0 min 5 W/m 12,9 km/h (3 Bft) 97,87 %
30.05.2023 05:40 9,2 C 8,3 C 5,0 C 85 % 1026,3 hPa 0,0 l/m 0 min 0 min 7 W/m 12,9 km/h (3 Bft) 95,74 %
30.05.2023 05:42 9,2 C 8,3 C 5,6 C 85 % 1026,3 hPa 0,0 l/m 0 min 0 min 8 W/m 9,7 km/h (2 Bft) 93,62 %
30.05.2023 05:44 9,2 C 8,3 C 5,6 C 86 % 1026,3 hPa 0,0 l/m 0 min 0 min 9 W/m 12,9 km/h (3 Bft) 93,48 %
30.05.2023 05:46 9,2 C 8,3 C 5,6 C 86 % 1026,2 hPa 0,0 l/m 0 min 0 min 10 W/m 9,7 km/h (2 Bft) 91,49 %
30.05.2023 05:48 9,2 C 8,3 C 5,6 C 86 % 1026,3 hPa 0,0 l/m 0 min 0 min 11 W/m 6,4 km/h (2 Bft) 93,62 %
30.05.2023 05:50 9,2 C 8,3 C 5,0 C 86 % 1026,3 hPa 0,0 l/m 0 min 0 min 12 W/m 9,7 km/h (2 Bft) 95,74 %
30.05.2023 05:52 9,3 C 8,3 C 5,6 C 86 % 1026,2 hPa 0,0 l/m 0 min 0 min 14 W/m 12,9 km/h (3 Bft) 95,74 %
30.05.2023 05:54 9,3 C 8,3 C 5,0 C 86 % 1026,2 hPa 0,0 l/m 0 min 0 min 16 W/m 12,9 km/h (3 Bft) 95,74 %
30.05.2023 05:56 9,3 C 8,3 C 5,0 C 86 % 1026,2 hPa 0,0 l/m 0 min 0 min 17 W/m 12,9 km/h (3 Bft) 93,48 %
30.05.2023 05:58 9,3 C 8,3 C 5,0 C 86 % 1026,2 hPa 0,0 l/m 0 min 0 min 18 W/m 12,9 km/h (3 Bft) 93,62 %
30.05.2023 06:00 9,3 C 8,9 C 5,6 C 86 % 1026,3 hPa 0,0 l/m 0 min 0 min 19 W/m 16,1 km/h (3 Bft) 97,87 %
30.05.2023 06:02 9,3 C 8,9 C 5,6 C 86 % 1026,3 hPa 0,0 l/m 0 min 0 min 19 W/m 12,9 km/h (3 Bft) 91,49 %
30.05.2023 06:04 9,3 C 8,9 C 5,6 C 86 % 1026,2 hPa 0,0 l/m 0 min 0 min 21 W/m 12,9 km/h (3 Bft) 93,75 %
30.05.2023 06:08 9,3 C 8,9 C 5,6 C 86 % 1026,2 hPa 0,0 l/m 0 min 0 min 22 W/m 19,3 km/h (3 Bft) 93,55 %
30.05.2023 06:10 9,3 C 8,9 C 5,6 C 86 % 1026,2 hPa 0,0 l/m 0 min 0 min 23 W/m 16,1 km/h (3 Bft) 95,65 %
30.05.2023 06:12 9,3 C 8,9 C 5,6 C 86 % 1026,3 hPa 0,0 l/m 0 min 0 min 25 W/m 6,4 km/h (2 Bft) 95,74 %
30.05.2023 06:14 9,3 C 8,9 C 5,6 C 86 % 1026,3 hPa 0,0 l/m 0 min 0 min 26 W/m 12,9 km/h (3 Bft) 95,74 %
30.05.2023 06:16 9,4 C 8,9 C 5,6 C 87 % 1026,3 hPa 0,0 l/m 0 min 0 min 26 W/m 25,7 km/h (4 Bft) 93,62 %
30.05.2023 06:18 9,4 C 8,9 C 5,6 C 87 % 1026,2 hPa 0,0 l/m 0 min 0 min 28 W/m 16,1 km/h (3 Bft) 95,74 %
30.05.2023 06:20 9,4 C 8,9 C 5,6 C 87 % 1026,2 hPa 0,0 l/m 0 min 0 min 28 W/m 19,3 km/h (3 Bft) 97,87 %
30.05.2023 06:22 9,4 C 8,9 C 5,6 C 87 % 1026,3 hPa 0,0 l/m 0 min 0 min 30 W/m 12,9 km/h (3 Bft) 97,83 %
30.05.2023 06:24 9,4 C 8,9 C 5,6 C 87 % 1026,4 hPa 0,0 l/m 0 min 0 min 30 W/m 22,5 km/h (4 Bft) 97,87 %
30.05.2023 06:26 9,4 C 8,9 C 5,6 C 86 % 1026,3 hPa 0,0 l/m 0 min 0 min 31 W/m 9,7 km/h (2 Bft) 100,00 %
30.05.2023 06:28 9,4 C 8,9 C 5,6 C 86 % 1026,4 hPa 0,0 l/m 0 min 0 min 32 W/m 12,9 km/h (3 Bft) 97,87 %
30.05.2023 06:30 9,5 C 8,9 C 5,6 C 86 % 1026,4 hPa 0,0 l/m 0 min 0 min 33 W/m 12,9 km/h (3 Bft) 97,87 %
30.05.2023 06:32 9,5 C 8,9 C 5,6 C 86 % 1026,4 hPa 0,0 l/m 0 min 0 min 34 W/m 12,9 km/h (3 Bft) 97,87 %
30.05.2023 06:34 9,5 C 8,9 C 5,6 C 86 % 1026,5 hPa 0,0 l/m 0 min 0 min 35 W/m 6,4 km/h (2 Bft) 95,74 %
30.05.2023 06:36 9,6 C 8,9 C 5,6 C 86 % 1026,5 hPa 0,0 l/m 0 min 0 min 36 W/m 9,7 km/h (2 Bft) 95,65 %
30.05.2023 06:38 9,6 C 8,9 C 5,6 C 86 % 1026,6 hPa 0,0 l/m 0 min 0 min 37 W/m 19,3 km/h (3 Bft) 97,87 %
30.05.2023 06:40 9,6 C 8,9 C 5,6 C 86 % 1026,5 hPa 0,0 l/m 0 min 0 min 37 W/m 9,7 km/h (2 Bft) 95,74 %
30.05.2023 06:42 9,6 C 9,4 C 5,6 C 86 % 1026,5 hPa 0,0 l/m 0 min 0 min 37 W/m 6,4 km/h (2 Bft) 95,74 %
30.05.2023 06:44 9,6 C 9,4 C 5,6 C 86 % 1026,5 hPa 0,0 l/m 0 min 0 min 37 W/m 6,4 km/h (2 Bft) 95,74 %
30.05.2023 06:46 9,6 C 9,4 C 5,6 C 86 % 1026,6 hPa 0,0 l/m 0 min 0 min 37 W/m 12,9 km/h (3 Bft) 93,62 %
30.05.2023 06:48 9,7 C 9,4 C 5,6 C 86 % 1026,6 hPa 0,0 l/m 0 min 0 min 35 W/m 6,4 km/h (2 Bft) 95,74 %
30.05.2023 06:50 9,7 C 9,4 C 5,6 C 86 % 1026,6 hPa 0,0 l/m 0 min 0 min 37 W/m 9,7 km/h (2 Bft) 97,83 %
30.05.2023 06:52 9,7 C 9,4 C 5,6 C 86 % 1026,5 hPa 0,0 l/m 0 min 0 min 37 W/m 12,9 km/h (3 Bft) 95,74 %
30.05.2023 06:54 9,7 C 9,4 C 6,1 C 86 % 1026,5 hPa 0,0 l/m 0 min 0 min 37 W/m 6,4 km/h (2 Bft) 97,87 %
30.05.2023 06:56 9,8 C 9,4 C 6,1 C 86 % 1026,5 hPa 0,0 l/m 0 min 0 min 38 W/m 9,7 km/h (2 Bft) 97,87 %
30.05.2023 06:58 9,8 C 9,4 C 6,1 C 86 % 1026,6 hPa 0,0 l/m 0 min 0 min 39 W/m 12,9 km/h (3 Bft) 97,87 %
30.05.2023 07:00 9,8 C 9,4 C 6,1 C 86 % 1026,6 hPa 0,0 l/m 0 min 0 min 37 W/m 6,4 km/h (2 Bft) 100,00 %
30.05.2023 07:02 9,8 C 9,4 C 6,1 C 86 % 1026,7 hPa 0,0 l/m 0 min 0 min 40 W/m 9,7 km/h (2 Bft) 100,00 %
30.05.2023 07:04 9,8 C 9,4 C 6,1 C 86 % 1026,6 hPa 0,0 l/m 0 min 0 min 48 W/m 12,9 km/h (3 Bft) 97,83 %
30.05.2023 07:06 9,9 C 9,4 C 6,1 C 86 % 1026,7 hPa 0,0 l/m 0 min 0 min 48 W/m 12,9 km/h (3 Bft) 96,67 %
30.05.2023 07:08 9,9 C 9,4 C 6,1 C 86 % 1026,7 hPa 0,0 l/m 0 min 0 min 47 W/m 6,4 km/h (2 Bft) 100,00 %
30.05.2023 07:10 9,9 C 9,4 C 6,1 C 86 % 1026,6 hPa 0,0 l/m 0 min 0 min 53 W/m 16,1 km/h (3 Bft) 100,00 %
30.05.2023 07:12 10,0 C 9,4 C 6,1 C 86 % 1026,6 hPa 0,0 l/m 0 min 0 min 53 W/m 16,1 km/h (3 Bft) 100,00 %
30.05.2023 07:14 10,1 C 10,0 C 6,1 C 85 % 1026,6 hPa 0,0 l/m 0 min 0 min 51 W/m 12,9 km/h (3 Bft) 100,00 %
30.05.2023 07:16 10,1 C 10,0 C 6,1 C 85 % 1026,6 hPa 0,0 l/m 0 min 0 min 51 W/m 9,7 km/h (2 Bft) 97,87 %
30.05.2023 07:18 10,1 C 10,0 C 6,1 C 85 % 1026,6 hPa 0,0 l/m 0 min 0 min 50 W/m 9,7 km/h (2 Bft) 93,48 %
30.05.2023 07:20 10,1 C 10,0 C 6,7 C 85 % 1026,7 hPa 0,0 l/m 0 min 0 min 49 W/m 6,4 km/h (2 Bft) 100,00 %
30.05.2023 07:22 10,2 C 10,0 C 6,7 C 85 % 1026,7 hPa 0,0 l/m 0 min 0 min 55 W/m 12,9 km/h (3 Bft) 100,00 %
30.05.2023 07:24 10,2 C 10,0 C 6,1 C 85 % 1026,6 hPa 0,0 l/m 0 min 0 min 59 W/m 12,9 km/h (3 Bft) 100,00 %
30.05.2023 07:26 10,2 C 10,0 C 6,1 C 85 % 1026,6 hPa 0,0 l/m 0 min 0 min 50 W/m 9,7 km/h (2 Bft) 97,87 %
30.05.2023 07:28 10,2 C 10,0 C 6,1 C 85 % 1026,6 hPa 0,0 l/m 0 min 0 min 54 W/m 16,1 km/h (3 Bft) 97,87 %
30.05.2023 07:30 10,2 C 10,0 C 6,7 C 85 % 1026,6 hPa 0,0 l/m 0 min 0 min 53 W/m 6,4 km/h (2 Bft) 97,87 %
30.05.2023 07:32 10,3 C 10,0 C 6,7 C 84 % 1026,7 hPa 0,0 l/m 0 min 0 min 52 W/m 16,1 km/h (3 Bft) 97,83 %
30.05.2023 07:34 10,3 C 10,0 C 6,7 C 84 % 1026,7 hPa 0,0 l/m 0 min 0 min 55 W/m 12,9 km/h (3 Bft) 97,87 %
30.05.2023 07:36 10,3 C 10,0 C 6,7 C 84 % 1026,7 hPa 0,0 l/m 0 min 0 min 54 W/m 16,1 km/h (3 Bft) 97,87 %
30.05.2023 07:38 10,3 C 10,0 C 6,7 C 83 % 1026,7 hPa 0,0 l/m 0 min 0 min 58 W/m 9,7 km/h (2 Bft) 95,74 %
30.05.2023 07:40 10,3 C 10,0 C 6,7 C 84 % 1026,7 hPa 0,0 l/m 0 min 0 min 61 W/m 16,1 km/h (3 Bft) 97,87 %
30.05.2023 07:42 10,3 C 10,0 C 6,7 C 83 % 1026,7 hPa 0,0 l/m 0 min 0 min 70 W/m 16,1 km/h (3 Bft) 95,74 %
30.05.2023 07:44 10,4 C 10,0 C 6,7 C 83 % 1026,7 hPa 0,0 l/m 0 min 0 min 107 W/m 6,4 km/h (2 Bft) 97,83 %
30.05.2023 07:46 10,4 C 10,0 C 6,7 C 83 % 1026,7 hPa 0,0 l/m 0 min 0 min 81 W/m 19,3 km/h (3 Bft) 97,87 %
30.05.2023 07:48 10,4 C 10,0 C 6,7 C 83 % 1026,8 hPa 0,0 l/m 0 min 0 min 77 W/m 12,9 km/h (3 Bft) 97,87 %
30.05.2023 07:50 10,4 C 10,6 C 6,7 C 82 % 1026,8 hPa 0,0 l/m 0 min 0 min 90 W/m 9,7 km/h (2 Bft) 95,74 %
30.05.2023 07:52 10,5 C 10,6 C 6,7 C 82 % 1026,8 hPa 0,0 l/m 0 min 0 min 86 W/m 9,7 km/h (2 Bft) 97,87 %
30.05.2023 07:54 10,6 C 10,6 C 6,7 C 82 % 1026,8 hPa 0,0 l/m 0 min 0 min 92 W/m 19,3 km/h (3 Bft) 97,87 %
30.05.2023 07:56 10,6 C 10,6 C 6,7 C 82 % 1026,8 hPa 0,0 l/m 2 min 0 min 191 W/m 16,1 km/h (3 Bft) 93,62 %
30.05.2023 07:58 10,6 C 10,6 C 6,7 C 82 % 1026,8 hPa 0,0 l/m 2 min 0 min 212 W/m 12,9 km/h (3 Bft) 93,48 %
30.05.2023 08:00 10,7 C 11,1 C 6,7 C 82 % 1026,8 hPa 0,0 l/m 2 min 0 min 238 W/m 9,7 km/h (2 Bft) 97,87 %
30.05.2023 08:02 10,8 C 11,7 C 7,2 C 82 % 1026,8 hPa 0,0 l/m 2 min 0 min 251 W/m 12,9 km/h (3 Bft) 100,00 %
30.05.2023 08:04 10,8 C 12,2 C 7,2 C 82 % 1026,8 hPa 0,0 l/m 2 min 0 min 239 W/m 19,3 km/h (3 Bft) 97,87 %
30.05.2023 08:06 10,9 C 12,2 C 7,2 C 82 % 1026,9 hPa 0,0 l/m 2 min 0 min 222 W/m 12,9 km/h (3 Bft) 100,00 %
30.05.2023 08:08 10,9 C 12,2 C 7,2 C 81 % 1026,8 hPa 0,0 l/m 2 min 0 min 232 W/m 16,1 km/h (3 Bft) 100,00 %
30.05.2023 08:10 11,0 C 12,8 C 7,2 C 81 % 1026,9 hPa 0,0 l/m 2 min 0 min 228 W/m 19,3 km/h (3 Bft) 100,00 %
30.05.2023 08:12 11,1 C 12,8 C 7,2 C 81 % 1026,9 hPa 0,0 l/m 2 min 0 min 239 W/m 19,3 km/h (3 Bft) 100,00 %
30.05.2023 08:14 11,1 C 13,3 C 7,2 C 80 % 1026,9 hPa 0,0 l/m 2 min 0 min 248 W/m 12,9 km/h (3 Bft) 97,87 %
30.05.2023 08:16 11,2 C 13,3 C 7,2 C 80 % 1026,9 hPa 0,0 l/m 2 min 0 min 277 W/m 19,3 km/h (3 Bft) 97,87 %
30.05.2023 08:18 11,3 C 13,9 C 7,2 C 80 % 1026,9 hPa 0,0 l/m 2 min 0 min 303 W/m 12,9 km/h (3 Bft) 95,74 %
30.05.2023 08:20 11,4 C 13,9 C 7,2 C 79 % 1026,9 hPa 0,0 l/m 2 min 0 min 322 W/m 16,1 km/h (3 Bft) 97,87 %
30.05.2023 08:22 11,4 C 13,9 C 7,8 C 79 % 1026,9 hPa 0,0 l/m 2 min 0 min 320 W/m 25,7 km/h (4 Bft) 95,74 %
30.05.2023 08:24 11,6 C 14,4 C 7,8 C 79 % 1026,9 hPa 0,0 l/m 2 min 0 min 347 W/m 16,1 km/h (3 Bft) 97,87 %
30.05.2023 08:26 11,6 C 15,6 C 8,3 C 79 % 1026,9 hPa 0,0 l/m 2 min 0 min 364 W/m 16,1 km/h (3 Bft) 93,62 %
30.05.2023 08:28 11,7 C 15,6 C 8,9 C 78 % 1027,0 hPa 0,0 l/m 2 min 0 min 366 W/m 19,3 km/h (3 Bft) 93,48 %
30.05.2023 08:30 11,8 C 15,6 C 8,9 C 77 % 1026,9 hPa 0,0 l/m 2 min 0 min 369 W/m 19,3 km/h (3 Bft) 95,74 %
30.05.2023 08:32 11,8 C 15,6 C 8,9 C 77 % 1027,0 hPa 0,0 l/m 2 min 0 min 377 W/m 16,1 km/h (3 Bft) 97,87 %
30.05.2023 08:34 11,9 C 15,6 C 9,4 C 77 % 1027,0 hPa 0,0 l/m 2 min 0 min 391 W/m 16,1 km/h (3 Bft) 97,87 %
30.05.2023 08:36 12,0 C 15,6 C 9,4 C 77 % 1027,1 hPa 0,0 l/m 2 min 0 min 375 W/m 16,1 km/h (3 Bft) 97,87 %
30.05.2023 08:38 12,1 C 16,1 C 9,4 C 77 % 1027,0 hPa 0,0 l/m 2 min 0 min 395 W/m 16,1 km/h (3 Bft) 97,87 %
30.05.2023 08:40 12,2 C 16,7 C 9,4 C 76 % 1027,0 hPa 0,0 l/m 2 min 0 min 414 W/m 16,1 km/h (3 Bft) 97,87 %
30.05.2023 08:42 12,3 C 17,2 C 10,0 C 77 % 1027,0 hPa 0,0 l/m 2 min 0 min 417 W/m 12,9 km/h (3 Bft) 95,65 %
30.05.2023 08:44 12,4 C 17,2 C 10,0 C 76 % 1027,0 hPa 0,0 l/m 2 min 0 min 408 W/m 19,3 km/h (3 Bft) 95,74 %
30.05.2023 08:46 12,6 C 17,2 C 10,0 C 76 % 1027,1 hPa 0,0 l/m 2 min 0 min 385 W/m 19,3 km/h (3 Bft) 95,74 %
30.05.2023 08:48 12,7 C 17,8 C 10,0 C 75 % 1027,0 hPa 0,0 l/m 2 min 0 min 406 W/m 16,1 km/h (3 Bft) 97,87 %
30.05.2023 08:50 12,7 C 17,2 C 10,0 C 75 % 1027,0 hPa 0,0 l/m 2 min 0 min 414 W/m 22,5 km/h (4 Bft) 97,87 %
30.05.2023 08:52 12,8 C 17,2 C 10,0 C 74 % 1027,0 hPa 0,0 l/m 2 min 0 min 429 W/m 12,9 km/h (3 Bft) 91,49 %
30.05.2023 08:54 12,9 C 17,8 C 10,6 C 74 % 1027,0 hPa 0,0 l/m 2 min 0 min 440 W/m 25,7 km/h (4 Bft) 95,65 %
30.05.2023 08:56 12,9 C 18,3 C 10,6 C 75 % 1027,0 hPa 0,0 l/m 2 min 0 min 458 W/m 9,7 km/h (2 Bft) 95,74 %
30.05.2023 08:58 13,1 C 18,3 C 10,6 C 74 % 1027,0 hPa 0,0 l/m 2 min 0 min 462 W/m 12,9 km/h (3 Bft) 95,74 %
30.05.2023 09:00 13,1 C 18,3 C 10,6 C 73 % 1027,0 hPa 0,0 l/m 2 min 0 min 458 W/m 12,9 km/h (3 Bft) 93,62 %
30.05.2023 09:02 13,2 C 18,3 C 11,1 C 73 % 1027,0 hPa 0,0 l/m 2 min 0 min 472 W/m 16,1 km/h (3 Bft) 93,62 %
30.05.2023 09:04 13,3 C 18,9 C 11,1 C 74 % 1027,0 hPa 0,0 l/m 2 min 0 min 483 W/m 12,9 km/h (3 Bft) 95,74 %
30.05.2023 09:06 13,4 C 19,4 C 11,7 C 72 % 1027,1 hPa 0,0 l/m 2 min 0 min 481 W/m 16,1 km/h (3 Bft) 95,74 %
30.05.2023 09:08 13,6 C 19,4 C 11,7 C 72 % 1027,1 hPa 0,0 l/m 2 min 0 min 490 W/m 16,1 km/h (3 Bft) 95,65 %
30.05.2023 09:10 13,7 C 19,4 C 11,7 C 71 % 1027,1 hPa 0,0 l/m 2 min 0 min 489 W/m 12,9 km/h (3 Bft) 93,62 %
30.05.2023 09:12 13,7 C 19,4 C 12,2 C 71 % 1027,0 hPa 0,0 l/m 2 min 0 min 501 W/m 9,7 km/h (2 Bft) 95,74 %
30.05.2023 09:14 13,8 C 19,4 C 11,7 C 71 % 1027,0 hPa 0,0 l/m 2 min 0 min 489 W/m 12,9 km/h (3 Bft) 95,74 %
30.05.2023 09:16 13,9 C 18,9 C 11,7 C 71 % 1027,1 hPa 0,0 l/m 2 min 0 min 485 W/m 16,1 km/h (3 Bft) 95,74 %
30.05.2023 09:18 13,9 C 18,9 C 12,2 C 70 % 1027,1 hPa 0,0 l/m 2 min 0 min 522 W/m 16,1 km/h (3 Bft) 95,74 %
30.05.2023 09:20 14,0 C 20,0 C 11,7 C 71 % 1027,0 hPa 0,0 l/m 2 min 0 min 526 W/m 12,9 km/h (3 Bft) 95,74 %
30.05.2023 09:22 14,1 C 19,4 C 12,2 C 71 % 1027,0 hPa 0,0 l/m 2 min 0 min 524 W/m 12,9 km/h (3 Bft) 95,65 %
30.05.2023 09:24 14,2 C 20,0 C 12,2 C 71 % 1027,0 hPa 0,0 l/m 2 min 0 min 522 W/m 12,9 km/h (3 Bft) 93,62 %
30.05.2023 09:26 14,3 C 20,0 C 12,2 C 70 % 1027,0 hPa 0,0 l/m 2 min 0 min 544 W/m 9,7 km/h (2 Bft) 95,74 %
30.05.2023 09:28 14,3 C 20,0 C 12,8 C 70 % 1027,0 hPa 0,0 l/m 2 min 0 min 543 W/m 12,9 km/h (3 Bft) 93,62 %
30.05.2023 09:30 14,4 C 19,4 C 12,8 C 69 % 1027,1 hPa 0,0 l/m 2 min 0 min 527 W/m 16,1 km/h (3 Bft) 91,49 %
30.05.2023 09:32 14,3 C 18,9 C 13,3 C 69 % 1027,1 hPa 0,0 l/m 2 min 0 min 532 W/m 12,9 km/h (3 Bft) 95,74 %
30.05.2023 09:34 14,4 C 18,9 C 12,8 C 69 % 1027,1 hPa 0,0 l/m 2 min 0 min 544 W/m 6,4 km/h (2 Bft) 91,49 %
30.05.2023 09:36 14,3 C 18,9 C 12,8 C 68 % 1027,1 hPa 0,0 l/m 2 min 0 min 535 W/m 12,9 km/h (3 Bft) 93,48 %
30.05.2023 09:38 14,3 C 17,8 C 13,3 C 68 % 1027,2 hPa 0,0 l/m 2 min 0 min 529 W/m 16,1 km/h (3 Bft) 93,62 %
30.05.2023 09:40 14,3 C 17,8 C 12,8 C 69 % 1027,1 hPa 0,0 l/m 2 min 0 min 554 W/m 16,1 km/h (3 Bft) 91,49 %
30.05.2023 09:42 14,3 C 18,3 C 12,8 C 70 % 1027,2 hPa 0,0 l/m 2 min 0 min 587 W/m 12,9 km/h (3 Bft) 95,74 %
30.05.2023 09:44 14,3 C 18,9 C 12,8 C 69 % 1027,1 hPa 0,0 l/m 2 min 0 min 582 W/m 9,7 km/h (2 Bft) 95,74 %
30.05.2023 09:46 14,4 C 18,9 C 12,8 C 69 % 1027,2 hPa 0,0 l/m 2 min 0 min 583 W/m 16,1 km/h (3 Bft) 95,74 %
30.05.2023 09:48 14,6 C 19,4 C 13,3 C 70 % 1027,2 hPa 0,0 l/m 2 min 0 min 579 W/m 12,9 km/h (3 Bft) 93,62 %
30.05.2023 09:50 14,8 C 19,4 C 13,9 C 69 % 1027,2 hPa 0,0 l/m 2 min 0 min 588 W/m 9,7 km/h (2 Bft) 95,65 %
30.05.2023 09:52 14,7 C 19,4 C 13,9 C 69 % 1027,2 hPa 0,0 l/m 2 min 0 min 589 W/m 19,3 km/h (3 Bft) 95,74 %
30.05.2023 09:54 14,8 C 19,4 C 13,9 C 69 % 1027,2 hPa 0,0 l/m 2 min 0 min 591 W/m 12,9 km/h (3 Bft) 93,62 %
30.05.2023 09:56 14,8 C 18,9 C 13,9 C 68 % 1027,2 hPa 0,0 l/m 2 min 0 min 610 W/m 16,1 km/h (3 Bft) 95,74 %
30.05.2023 09:58 14,8 C 19,4 C 14,4 C 69 % 1027,2 hPa 0,0 l/m 2 min 0 min 612 W/m 12,9 km/h (3 Bft) 95,74 %
30.05.2023 10:00 14,8 C 18,9 C 14,4 C 68 % 1027,2 hPa 0,0 l/m 2 min 0 min 619 W/m 16,1 km/h (3 Bft) 95,74 %
30.05.2023 10:02 14,8 C 18,9 C 15,0 C 68 % 1027,2 hPa 0,0 l/m 2 min 0 min 621 W/m 6,4 km/h (2 Bft) 93,62 %
30.05.2023 10:04 14,9 C 19,4 C 14,4 C 69 % 1027,2 hPa 0,0 l/m 2 min 0 min 624 W/m 6,4 km/h (2 Bft) 97,83 %
30.05.2023 10:06 15,2 C 20,0 C 15,0 C 69 % 1027,2 hPa 0,0 l/m 2 min 0 min 653 W/m 16,1 km/h (3 Bft) 97,87 %
30.05.2023 10:08 15,3 C 19,4 C 15,0 C 67 % 1027,2 hPa 0,0 l/m 2 min 0 min 644 W/m 16,1 km/h (3 Bft) 97,87 %
30.05.2023 10:10 15,3 C 19,4 C 15,0 C 66 % 1027,2 hPa 0,0 l/m 2 min 0 min 655 W/m 12,9 km/h (3 Bft) 97,87 %
30.05.2023 10:12 15,3 C 18,9 C 15,6 C 67 % 1027,2 hPa 0,0 l/m 2 min 0 min 664 W/m 12,9 km/h (3 Bft) 97,87 %
30.05.2023 10:14 15,3 C 18,9 C 15,0 C 67 % 1027,2 hPa 0,0 l/m 2 min 0 min 669 W/m 12,9 km/h (3 Bft) 97,87 %
30.05.2023 10:16 15,4 C 18,3 C 15,6 C 66 % 1027,2 hPa 0,0 l/m 2 min 0 min 668 W/m 9,7 km/h (2 Bft) 95,74 %
30.05.2023 10:18 15,5 C 18,9 C 15,0 C 66 % 1027,2 hPa 0,0 l/m 2 min 0 min 666 W/m 9,7 km/h (2 Bft) 97,83 %
30.05.2023 10:20 15,3 C 17,8 C 15,0 C 65 % 1027,1 hPa 0,0 l/m 2 min 0 min 669 W/m 16,1 km/h (3 Bft) 97,87 %
30.05.2023 10:22 15,3 C 17,2 C 15,0 C 66 % 1027,1 hPa 0,0 l/m 2 min 0 min 670 W/m 12,9 km/h (3 Bft) 95,74 %
30.05.2023 10:24 15,2 C 17,8 C 15,0 C 66 % 1027,1 hPa 0,0 l/m 2 min 0 min 676 W/m 12,9 km/h (3 Bft) 97,87 %
30.05.2023 10:26 15,3 C 18,3 C 15,0 C 67 % 1027,1 hPa 0,0 l/m 2 min 0 min 677 W/m 12,9 km/h (3 Bft) 95,74 %
30.05.2023 10:28 15,3 C 17,8 C 15,0 C 66 % 1027,1 hPa 0,0 l/m 2 min 0 min 668 W/m 16,1 km/h (3 Bft) 97,87 %
30.05.2023 10:30 15,3 C 17,8 C 15,0 C 66 % 1027,0 hPa 0,0 l/m 2 min 0 min 665 W/m 19,3 km/h (3 Bft) 97,83 %
30.05.2023 10:32 15,3 C 17,2 C 14,4 C 66 % 1027,0 hPa 0,0 l/m 2 min 0 min 662 W/m 12,9 km/h (3 Bft) 93,62 %
30.05.2023 10:34 15,3 C 16,7 C 15,0 C 66 % 1027,0 hPa 0,0 l/m 2 min 0 min 668 W/m 16,1 km/h (3 Bft) 97,87 %
30.05.2023 10:36 15,2 C 16,1 C 15,0 C 65 % 1027,1 hPa 0,0 l/m 2 min 0 min 666 W/m 16,1 km/h (3 Bft) 97,87 %
30.05.2023 10:38 15,2 C 16,1 C 15,0 C 66 % 1027,0 hPa 0,0 l/m 2 min 0 min 651 W/m 22,5 km/h (4 Bft) 100,00 %
30.05.2023 10:40 15,2 C 16,7 C 14,4 C 67 % 1027,0 hPa 0,0 l/m 2 min 0 min 657 W/m 16,1 km/h (3 Bft) 100,00 %
30.05.2023 10:42 15,2 C 16,7 C 13,9 C 67 % 1027,0 hPa 0,0 l/m 2 min 0 min 685 W/m 9,7 km/h (2 Bft) 100,00 %
30.05.2023 10:44 15,3 C 17,2 C 14,4 C 67 % 1027,0 hPa 0,0 l/m 2 min 0 min 699 W/m 12,9 km/h (3 Bft) 100,00 %
30.05.2023 10:46 15,3 C 16,7 C 14,4 C 67 % 1027,0 hPa 0,0 l/m 2 min 0 min 693 W/m 12,9 km/h (3 Bft) 100,00 %
30.05.2023 10:48 15,3 C 17,2 C 14,4 C 67 % 1027,0 hPa 0,0 l/m 2 min 0 min 676 W/m 16,1 km/h (3 Bft) 100,00 %
30.05.2023 10:50 15,3 C 16,7 C 14,4 C 66 % 1027,0 hPa 0,0 l/m 2 min 0 min 702 W/m 19,3 km/h (3 Bft) 100,00 %
30.05.2023 10:52 15,3 C 16,7 C 14,4 C 66 % 1027,0 hPa 0,0 l/m 2 min 0 min 735 W/m 16,1 km/h (3 Bft) 100,00 %
30.05.2023 10:54 15,4 C 16,7 C 13,9 C 66 % 1027,0 hPa 0,0 l/m 2 min 0 min 747 W/m 19,3 km/h (3 Bft) 97,87 %
30.05.2023 10:56 15,4 C 17,2 C 13,9 C 66 % 1027,0 hPa 0,0 l/m 2 min 0 min 747 W/m 12,9 km/h (3 Bft) 100,00 %
30.05.2023 10:58 15,4 C 17,2 C 13,3 C 66 % 1027,1 hPa 0,0 l/m 2 min 0 min 748 W/m 19,3 km/h (3 Bft) 100,00 %
30.05.2023 11:00 15,4 C 18,3 C 12,8 C 66 % 1027,0 hPa 0,0 l/m 2 min 0 min 761 W/m 19,3 km/h (3 Bft) 100,00 %
30.05.2023 11:02 15,5 C 18,3 C 12,8 C 66 % 1027,0 hPa 0,0 l/m 2 min 0 min 775 W/m 16,1 km/h (3 Bft) 100,00 %
30.05.2023 11:04 15,6 C 18,9 C 12,8 C 66 % 1026,9 hPa 0,0 l/m 2 min 0 min 773 W/m 12,9 km/h (3 Bft) 100,00 %
30.05.2023 11:06 15,7 C 18,3 C 12,8 C 65 % 1026,9 hPa 0,0 l/m 2 min 0 min 783 W/m 32,2 km/h (5 Bft) 95,74 %
30.05.2023 11:08 15,6 C 18,3 C 13,3 C 66 % 1026,9 hPa 0,0 l/m 2 min 0 min 789 W/m 16,1 km/h (3 Bft) 100,00 %
30.05.2023 11:10 15,7 C 18,3 C 13,3 C 65 % 1026,9 hPa 0,0 l/m 2 min 0 min 789 W/m 12,9 km/h (3 Bft) 100,00 %
30.05.2023 11:12 15,6 C 17,8 C 13,9 C 65 % 1026,8 hPa 0,0 l/m 2 min 0 min 789 W/m 12,9 km/h (3 Bft) 100,00 %
30.05.2023 11:14 15,6 C 18,3 C 13,9 C 65 % 1026,9 hPa 0,0 l/m 2 min 0 min 796 W/m 9,7 km/h (2 Bft) 100,00 %
30.05.2023 11:16 15,7 C 18,9 C 13,9 C 65 % 1026,8 hPa 0,0 l/m 2 min 0 min 798 W/m 12,9 km/h (3 Bft) 100,00 %
30.05.2023 11:18 15,9 C 18,9 C 13,9 C 65 % 1026,8 hPa 0,0 l/m 2 min 0 min 807 W/m 19,3 km/h (3 Bft) 100,00 %
30.05.2023 11:20 16,1 C 20,0 C 14,4 C 65 % 1026,7 hPa 0,0 l/m 2 min 0 min 797 W/m 16,1 km/h (3 Bft) 100,00 %
30.05.2023 11:22 16,3 C 20,0 C 15,0 C 65 % 1026,8 hPa 0,0 l/m 2 min 0 min 799 W/m 12,9 km/h (3 Bft) 97,37 %
30.05.2023 11:24 16,4 C 19,4 C 15,6 C 64 % 1026,7 hPa 0,0 l/m 2 min 0 min 795 W/m 25,7 km/h (4 Bft) 97,96 %
30.05.2023 11:26 16,4 C 19,4 C 15,6 C 63 % 1026,8 hPa 0,0 l/m 2 min 0 min 781 W/m 12,9 km/h (3 Bft) 95,65 %
30.05.2023 11:28 16,3 C 19,4 C 15,6 C 62 % 1026,7 hPa 0,0 l/m 2 min 0 min 793 W/m 22,5 km/h (4 Bft) 97,87 %
30.05.2023 11:30 16,4 C 20,0 C 16,1 C 64 % 1026,8 hPa 0,0 l/m 2 min 0 min 807 W/m 12,9 km/h (3 Bft) 89,36 %
30.05.2023 11:32 16,6 C 21,1 C 16,7 C 63 % 1026,8 hPa 0,0 l/m 2 min 0 min 811 W/m 9,7 km/h (2 Bft) 93,75 %
30.05.2023 11:34 16,7 C 21,1 C 16,7 C 63 % 1026,8 hPa 0,0 l/m 2 min 0 min 828 W/m 12,9 km/h (3 Bft) 93,62 %
30.05.2023 11:36 16,7 C 20,6 C 17,2 C 62 % 1026,8 hPa 0,0 l/m 2 min 0 min 829 W/m 12,9 km/h (3 Bft) 95,74 %
30.05.2023 11:38 16,8 C 21,1 C 17,2 C 62 % 1026,7 hPa 0,0 l/m 2 min 0 min 832 W/m 9,7 km/h (2 Bft) 95,74 %
30.05.2023 11:40 16,8 C 20,6 C 17,2 C 61 % 1026,7 hPa 0,0 l/m 2 min 0 min 836 W/m 19,3 km/h (3 Bft) 95,65 %
30.05.2023 11:42 16,9 C 20,6 C 17,2 C 61 % 1026,8 hPa 0,0 l/m 2 min 0 min 830 W/m 16,1 km/h (3 Bft) 95,74 %
30.05.2023 11:44 16,9 C 21,1 C 17,8 C 60 % 1026,8 hPa 0,0 l/m 2 min 0 min 828 W/m 19,3 km/h (3 Bft) 93,62 %
30.05.2023 11:46 16,9 C 21,1 C 17,2 C 59 % 1026,8 hPa 0,0 l/m 2 min 0 min 837 W/m 16,1 km/h (3 Bft) 95,74 %
30.05.2023 11:48 17,0 C 21,7 C 17,2 C 60 % 1026,7 hPa 0,0 l/m 2 min 0 min 848 W/m 9,7 km/h (2 Bft) 93,62 %
30.05.2023 11:50 17,1 C 22,2 C 16,7 C 61 % 1026,7 hPa 0,0 l/m 2 min 0 min 848 W/m 9,7 km/h (2 Bft) 95,74 %
30.05.2023 11:52 17,2 C 22,2 C 16,7 C 59 % 1026,7 hPa 0,0 l/m 2 min 0 min 847 W/m 22,5 km/h (4 Bft) 95,74 %
30.05.2023 11:54 17,3 C 22,2 C 16,1 C 59 % 1026,7 hPa 0,0 l/m 2 min 0 min 851 W/m 12,9 km/h (3 Bft) 95,65 %
30.05.2023 11:56 17,4 C 22,8 C 16,1 C 60 % 1026,7 hPa 0,0 l/m 2 min 0 min 842 W/m 19,3 km/h (3 Bft) 95,74 %
30.05.2023 11:58 17,6 C 22,8 C 16,1 C 60 % 1026,7 hPa 0,0 l/m 2 min 0 min 853 W/m 12,9 km/h (3 Bft) 95,74 %
30.05.2023 12:00 17,7 C 22,8 C 16,1 C 59 % 1026,7 hPa 0,0 l/m 2 min 0 min 851 W/m 12,9 km/h (3 Bft) 91,49 %
30.05.2023 12:02 17,7 C 22,2 C 16,1 C 58 % 1026,6 hPa 0,0 l/m 2 min 0 min 846 W/m 12,9 km/h (3 Bft) 95,74 %
30.05.2023 12:04 17,6 C 21,7 C 16,7 C 59 % 1026,7 hPa 0,0 l/m 2 min 0 min 844 W/m 12,9 km/h (3 Bft) 93,75 %
30.05.2023 12:07 17,4 C 21,7 C 16,1 C 60 % 1026,6 hPa 0,0 l/m 3 min 0 min 867 W/m 22,5 km/h (4 Bft) 93,75 %
30.05.2023 12:08 17,3 C 21,7 C 16,7 C 60 % 1026,6 hPa 0,0 l/m 1 min 0 min 856 W/m 22,5 km/h (4 Bft) 98,00 %
30.05.2023 12:10 17,4 C 22,2 C 17,2 C 61 % 1026,5 hPa 0,0 l/m 2 min 0 min 858 W/m 12,9 km/h (3 Bft) 100,00 %
30.05.2023 12:12 17,6 C 22,2 C 17,2 C 60 % 1026,5 hPa 0,0 l/m 2 min 0 min 864 W/m 19,3 km/h (3 Bft) 95,74 %
30.05.2023 12:14 17,7 C 22,8 C 17,2 C 60 % 1026,6 hPa 0,0 l/m 2 min 0 min 870 W/m 12,9 km/h (3 Bft) 97,87 %
30.05.2023 12:16 17,7 C 23,3 C 17,8 C 60 % 1026,5 hPa 0,0 l/m 2 min 0 min 881 W/m 9,7 km/h (2 Bft) 97,87 %
30.05.2023 12:18 17,8 C 23,3 C 18,3 C 60 % 1026,5 hPa 0,0 l/m 2 min 0 min 884 W/m 16,1 km/h (3 Bft) 100,00 %
30.05.2023 12:20 18,0 C 23,3 C 19,4 C 59 % 1026,5 hPa 0,0 l/m 2 min 0 min 887 W/m 9,7 km/h (2 Bft) 95,74 %
30.05.2023 12:22 18,1 C 23,3 C 20,0 C 59 % 1026,5 hPa 0,0 l/m 2 min 0 min 887 W/m 19,3 km/h (3 Bft) 100,00 %
30.05.2023 12:24 18,2 C 23,3 C 20,6 C 58 % 1026,5 hPa 0,0 l/m 2 min 0 min 890 W/m 19,3 km/h (3 Bft) 98,31 %
30.05.2023 12:26 18,3 C 23,9 C 20,0 C 58 % 1026,5 hPa 0,0 l/m 2 min 0 min 887 W/m 12,9 km/h (3 Bft) 95,74 %
30.05.2023 12:28 18,4 C 23,9 C 20,0 C 57 % 1026,4 hPa 0,0 l/m 2 min 0 min 870 W/m 16,1 km/h (3 Bft) 100,00 %
30.05.2023 12:30 18,4 C 23,3 C 20,6 C 57 % 1026,5 hPa 0,0 l/m 2 min 0 min 879 W/m 19,3 km/h (3 Bft) 97,87 %
30.05.2023 12:32 18,4 C 23,3 C 21,1 C 57 % 1026,5 hPa 0,0 l/m 2 min 0 min 881 W/m 12,9 km/h (3 Bft) 100,00 %
30.05.2023 12:34 18,5 C 23,9 C 21,1 C 57 % 1026,5 hPa 0,0 l/m 2 min 0 min 894 W/m 16,1 km/h (3 Bft) 100,00 %
30.05.2023 12:36 18,5 C 23,3 C 21,7 C 57 % 1026,4 hPa 0,0 l/m 2 min 0 min 884 W/m 3,2 km/h (1 Bft) 100,00 %
30.05.2023 12:38 18,5 C 22,8 C 22,2 C 56 % 1026,4 hPa 0,0 l/m 2 min 0 min 888 W/m 16,1 km/h (3 Bft) 100,00 %
30.05.2023 12:40 18,6 C 22,8 C 22,2 C 57 % 1026,4 hPa 0,0 l/m 2 min 0 min 897 W/m 19,3 km/h (3 Bft) 100,00 %
30.05.2023 12:42 18,6 C 23,3 C 21,7 C 57 % 1026,3 hPa 0,0 l/m 2 min 0 min 902 W/m 16,1 km/h (3 Bft) 97,87 %
30.05.2023 12:44 18,7 C 23,9 C 21,7 C 57 % 1026,3 hPa 0,0 l/m 2 min 0 min 902 W/m 12,9 km/h (3 Bft) 100,00 %
30.05.2023 12:46 18,8 C 23,9 C 21,1 C 57 % 1026,4 hPa 0,0 l/m 2 min 0 min 903 W/m 16,1 km/h (3 Bft) 100,00 %
30.05.2023 12:48 18,8 C 23,9 C 21,7 C 57 % 1026,4 hPa 0,0 l/m 2 min 0 min 913 W/m 19,3 km/h (3 Bft) 100,00 %
30.05.2023 12:50 18,8 C 23,9 C 20,6 C 54 % 1026,4 hPa 0,0 l/m 2 min 0 min 915 W/m 12,9 km/h (3 Bft) 100,00 %
30.05.2023 12:52 18,9 C 23,9 C 21,1 C 54 % 1026,4 hPa 0,0 l/m 2 min 0 min 918 W/m 12,9 km/h (3 Bft) 100,00 %
30.05.2023 12:54 18,9 C 25,0 C 21,1 C 55 % 1026,3 hPa 0,0 l/m 2 min 0 min 915 W/m 12,9 km/h (3 Bft) 100,00 %
30.05.2023 12:56 19,1 C 25,0 C 21,7 C 55 % 1026,4 hPa 0,0 l/m 2 min 0 min 910 W/m 12,9 km/h (3 Bft) 97,87 %
30.05.2023 12:58 19,2 C 25,0 C 21,1 C 55 % 1026,3 hPa 0,0 l/m 2 min 0 min 912 W/m 19,3 km/h (3 Bft) 95,74 %
30.05.2023 13:00 19,3 C 25,0 C 21,7 C 55 % 1026,3 hPa 0,0 l/m 2 min 0 min 908 W/m 22,5 km/h (4 Bft) 97,87 %
30.05.2023 13:02 19,3 C 24,4 C 21,1 C 55 % 1026,4 hPa 0,0 l/m 2 min 0 min 903 W/m 16,1 km/h (3 Bft) 100,00 %
30.05.2023 13:04 19,4 C 25,0 C 21,7 C 55 % 1026,3 hPa 0,0 l/m 2 min 0 min 908 W/m 12,9 km/h (3 Bft) 97,87 %
30.05.2023 13:06 19,4 C 25,0 C 21,1 C 55 % 1026,4 hPa 0,0 l/m 2 min 0 min 903 W/m 12,9 km/h (3 Bft) 98,31 %
30.05.2023 13:08 19,6 C 25,0 C 21,1 C 54 % 1026,3 hPa 0,0 l/m 2 min 0 min 902 W/m 16,1 km/h (3 Bft) 100,00 %
30.05.2023 13:10 19,6 C 25,0 C 20,6 C 54 % 1026,2 hPa 0,0 l/m 2 min 0 min 892 W/m 12,9 km/h (3 Bft) 100,00 %
30.05.2023 13:12 19,6 C 25,6 C 20,6 C 55 % 1026,2 hPa 0,0 l/m 2 min 0 min 929 W/m 16,1 km/h (3 Bft) 100,00 %
30.05.2023 13:14 19,6 C 25,0 C 20,6 C 55 % 1026,2 hPa 0,0 l/m 2 min 0 min 931 W/m 19,3 km/h (3 Bft) 97,87 %
30.05.2023 13:16 19,6 C 24,4 C 21,7 C 52 % 1026,2 hPa 0,0 l/m 2 min 0 min 920 W/m 19,3 km/h (3 Bft) 100,00 %
30.05.2023 13:18 19,5 C 25,0 C 22,2 C 54 % 1026,1 hPa 0,0 l/m 2 min 0 min 904 W/m 16,1 km/h (3 Bft) 100,00 %
30.05.2023 13:20 19,6 C 25,0 C 21,7 C 54 % 1026,1 hPa 0,0 l/m 2 min 0 min 913 W/m 12,9 km/h (3 Bft) 100,00 %
30.05.2023 13:22 19,6 C 25,6 C 21,7 C 53 % 1026,1 hPa 0,0 l/m 2 min 0 min 920 W/m 9,7 km/h (2 Bft) 100,00 %
30.05.2023 13:24 19,7 C 25,6 C 22,2 C 53 % 1026,1 hPa 0,0 l/m 2 min 0 min 926 W/m 9,7 km/h (2 Bft) 97,87 %
30.05.2023 13:26 19,8 C 25,6 C 22,2 C 54 % 1026,1 hPa 0,0 l/m 2 min 0 min 929 W/m 12,9 km/h (3 Bft) 97,87 %
30.05.2023 13:28 19,8 C 25,6 C 21,7 C 53 % 1026,1 hPa 0,0 l/m 2 min 0 min 925 W/m 22,5 km/h (4 Bft) 97,83 %
30.05.2023 13:30 19,8 C 26,1 C 22,2 C 54 % 1026,0 hPa 0,0 l/m 2 min 0 min 923 W/m 9,7 km/h (2 Bft) 97,87 %
30.05.2023 13:32 19,9 C 26,1 C 22,8 C 53 % 1026,0 hPa 0,0 l/m 2 min 0 min 930 W/m 16,1 km/h (3 Bft) 100,00 %
30.05.2023 13:34 20,0 C 26,7 C 22,2 C 53 % 1026,0 hPa 0,0 l/m 2 min 0 min 929 W/m 12,9 km/h (3 Bft) 97,87 %
30.05.2023 13:36 20,1 C 26,7 C 22,2 C 52 % 1026,0 hPa 0,0 l/m 2 min 0 min 927 W/m 16,1 km/h (3 Bft) 97,22 %
30.05.2023 13:38 20,1 C 26,1 C 22,8 C 52 % 1025,9 hPa 0,0 l/m 2 min 0 min 917 W/m 16,1 km/h (3 Bft) 98,15 %
30.05.2023 13:40 20,1 C 26,1 C 23,3 C 53 % 1025,9 hPa 0,0 l/m 2 min 0 min 928 W/m 19,3 km/h (3 Bft) 97,87 %
30.05.2023 13:42 20,2 C 26,1 C 22,8 C 53 % 1025,9 hPa 0,0 l/m 2 min 0 min 929 W/m 12,9 km/h (3 Bft) 97,87 %
30.05.2023 13:44 20,2 C 26,1 C 22,8 C 52 % 1026,0 hPa 0,0 l/m 2 min 0 min 928 W/m 12,9 km/h (3 Bft) 97,83 %
30.05.2023 13:46 20,2 C 26,7 C 22,8 C 52 % 1026,0 hPa 0,0 l/m 2 min 0 min 928 W/m 12,9 km/h (3 Bft) 97,87 %
30.05.2023 13:48 20,3 C 26,7 C 22,2 C 54 % 1025,9 hPa 0,0 l/m 2 min 0 min 928 W/m 16,1 km/h (3 Bft) 97,87 %
30.05.2023 13:50 20,3 C 26,7 C 20,6 C 53 % 1025,9 hPa 0,0 l/m 2 min 0 min 924 W/m 12,9 km/h (3 Bft) 97,87 %
30.05.2023 13:52 20,4 C 27,2 C 20,0 C 53 % 1025,9 hPa 0,0 l/m 2 min 0 min 927 W/m 16,1 km/h (3 Bft) 97,87 %
30.05.2023 13:54 20,4 C 27,8 C 19,4 C 54 % 1025,9 hPa 0,0 l/m 2 min 0 min 925 W/m 9,7 km/h (2 Bft) 97,87 %
30.05.2023 13:56 20,5 C 27,8 C 18,3 C 53 % 1025,8 hPa 0,0 l/m 2 min 0 min 921 W/m 12,9 km/h (3 Bft) 95,65 %
30.05.2023 13:58 20,5 C 27,8 C 17,8 C 52 % 1025,8 hPa 0,0 l/m 2 min 0 min 904 W/m 12,9 km/h (3 Bft) 97,87 %
30.05.2023 14:00 20,6 C 27,2 C 17,8 C 53 % 1025,8 hPa 0,0 l/m 2 min 0 min 913 W/m 6,4 km/h (2 Bft) 93,62 %
30.05.2023 14:02 20,6 C 27,2 C 17,8 C 53 % 1025,8 hPa 0,0 l/m 2 min 0 min 907 W/m 22,5 km/h (4 Bft) 93,62 %
30.05.2023 14:04 20,6 C 27,2 C 17,8 C 53 % 1025,7 hPa 0,0 l/m 2 min 0 min 899 W/m 16,1 km/h (3 Bft) 95,24 %
30.05.2023 14:06 20,8 C 26,7 C 17,8 C 53 % 1025,7 hPa 0,0 l/m 2 min 0 min 902 W/m 12,9 km/h (3 Bft) 97,87 %
30.05.2023 14:08 20,8 C 26,1 C 17,8 C 52 % 1025,7 hPa 0,0 l/m 2 min 0 min 901 W/m 16,1 km/h (3 Bft) 95,74 %
30.05.2023 14:10 20,7 C 26,7 C 17,2 C 52 % 1025,7 hPa 0,0 l/m 2 min 0 min 898 W/m 12,9 km/h (3 Bft) 97,87 %
30.05.2023 14:12 20,7 C 26,7 C 16,7 C 52 % 1025,7 hPa 0,0 l/m 2 min 0 min 902 W/m 12,9 km/h (3 Bft) 95,65 %
30.05.2023 14:14 20,7 C 26,7 C 16,7 C 52 % 1025,7 hPa 0,0 l/m 2 min 0 min 911 W/m 16,1 km/h (3 Bft) 97,87 %
30.05.2023 14:16 20,7 C 26,7 C 16,7 C 53 % 1025,6 hPa 0,0 l/m 2 min 0 min 915 W/m 19,3 km/h (3 Bft) 97,87 %
30.05.2023 14:18 20,7 C 27,2 C 16,7 C 52 % 1025,7 hPa 0,0 l/m 2 min 0 min 924 W/m 16,1 km/h (3 Bft) 95,74 %
30.05.2023 14:20 20,7 C 26,7 C 16,7 C 53 % 1025,7 hPa 0,0 l/m 2 min 0 min 927 W/m 22,5 km/h (4 Bft) 97,87 %
30.05.2023 14:22 20,6 C 26,1 C 16,7 C 53 % 1025,7 hPa 0,0 l/m 2 min 0 min 852 W/m 12,9 km/h (3 Bft) 98,00 %
30.05.2023 14:24 20,6 C 26,7 C 16,7 C 53 % 1025,6 hPa 0,0 l/m 2 min 0 min 871 W/m 12,9 km/h (3 Bft) 95,65 %
30.05.2023 14:26 20,6 C 26,7 C 16,1 C 53 % 1025,6 hPa 0,0 l/m 2 min 0 min 908 W/m 19,3 km/h (3 Bft) 93,62 %
30.05.2023 14:28 20,6 C 27,8 C 16,1 C 54 % 1025,6 hPa 0,0 l/m 2 min 0 min 911 W/m 9,7 km/h (2 Bft) 97,87 %
30.05.2023 14:30 20,7 C 27,8 C 16,7 C 55 % 1025,5 hPa 0,0 l/m 2 min 0 min 907 W/m 12,9 km/h (3 Bft) 97,87 %
30.05.2023 14:32 20,8 C 26,7 C 16,1 C 53 % 1025,5 hPa 0,0 l/m 2 min 0 min 908 W/m 19,3 km/h (3 Bft) 97,87 %
30.05.2023 14:34 20,8 C 27,2 C 16,7 C 54 % 1025,5 hPa 0,0 l/m 2 min 0 min 906 W/m 12,9 km/h (3 Bft) 93,62 %
30.05.2023 14:36 20,9 C 26,7 C 16,7 C 54 % 1025,5 hPa 0,0 l/m 2 min 0 min 904 W/m 12,9 km/h (3 Bft) 93,62 %
30.05.2023 14:38 21,0 C 27,2 C 16,7 C 53 % 1025,5 hPa 0,0 l/m 2 min 0 min 901 W/m 12,9 km/h (3 Bft) 95,65 %
30.05.2023 14:40 21,1 C 27,2 C 16,7 C 54 % 1025,4 hPa 0,0 l/m 2 min 0 min 906 W/m 16,1 km/h (3 Bft) 95,74 %
30.05.2023 14:42 21,1 C 27,2 C 16,7 C 53 % 1025,4 hPa 0,0 l/m 2 min 0 min 903 W/m 9,7 km/h (2 Bft) 95,74 %
30.05.2023 14:44 21,1 C 27,2 C 16,7 C 53 % 1025,3 hPa 0,0 l/m 2 min 0 min 893 W/m 9,7 km/h (2 Bft) 97,87 %
30.05.2023 14:46 21,2 C 27,8 C 17,2 C 54 % 1025,3 hPa 0,0 l/m 2 min 0 min 890 W/m 16,1 km/h (3 Bft) 93,62 %
30.05.2023 14:48 21,4 C 27,8 C 17,2 C 55 % 1025,3 hPa 0,0 l/m 2 min 0 min 881 W/m 25,7 km/h (4 Bft) 97,87 %
30.05.2023 14:50 21,5 C 27,8 C 16,7 C 53 % 1025,3 hPa 0,0 l/m 2 min 0 min 876 W/m 9,7 km/h (2 Bft) 97,87 %
30.05.2023 14:52 21,6 C 27,8 C 16,7 C 53 % 1025,3 hPa 0,0 l/m 2 min 0 min 880 W/m 12,9 km/h (3 Bft) 97,83 %
30.05.2023 14:54 21,5 C 27,2 C 16,7 C 53 % 1025,2 hPa 0,0 l/m 2 min 0 min 874 W/m 12,9 km/h (3 Bft) 97,87 %
30.05.2023 14:56 21,4 C 27,2 C 17,2 C 53 % 1025,2 hPa 0,0 l/m 2 min 0 min 870 W/m 12,9 km/h (3 Bft) 95,74 %
30.05.2023 14:58 21,4 C 26,7 C 17,2 C 52 % 1025,2 hPa 0,0 l/m 2 min 0 min 873 W/m 16,1 km/h (3 Bft) 97,87 %
30.05.2023 15:00 21,4 C 27,2 C 17,2 C 52 % 1025,2 hPa 0,0 l/m 2 min 0 min 872 W/m 12,9 km/h (3 Bft) 97,87 %
30.05.2023 15:02 21,4 C 27,2 C 16,7 C 53 % 1025,1 hPa 0,0 l/m 2 min 0 min 867 W/m 9,7 km/h (2 Bft) 93,62 %
30.05.2023 15:04 21,5 C 27,2 C 17,2 C 54 % 1025,2 hPa 0,0 l/m 2 min 0 min 865 W/m 9,7 km/h (2 Bft) 95,83 %
30.05.2023 15:06 21,6 C 27,2 C 17,2 C 53 % 1025,3 hPa 0,0 l/m 2 min 0 min 860 W/m 12,9 km/h (3 Bft) 98,28 %
30.05.2023 15:08 21,6 C 27,2 C 16,7 C 52 % 1025,2 hPa 0,0 l/m 2 min 0 min 853 W/m 9,7 km/h (2 Bft) 97,14 %
30.05.2023 15:10 21,6 C 27,8 C 17,2 C 53 % 1025,2 hPa 0,0 l/m 2 min 0 min 867 W/m 12,9 km/h (3 Bft) 93,62 %
30.05.2023 15:12 21,7 C 27,2 C 17,2 C 53 % 1025,1 hPa 0,0 l/m 2 min 0 min 871 W/m 12,9 km/h (3 Bft) 97,87 %
30.05.2023 15:14 21,8 C 26,7 C 16,7 C 52 % 1025,1 hPa 0,0 l/m 2 min 0 min 863 W/m 19,3 km/h (3 Bft) 97,87 %
30.05.2023 15:16 21,7 C 26,7 C 16,7 C 53 % 1025,1 hPa 0,0 l/m 2 min 0 min 860 W/m 19,3 km/h (3 Bft) 97,87 %
30.05.2023 15:18 21,7 C 26,7 C 16,7 C 53 % 1025,1 hPa 0,0 l/m 2 min 0 min 860 W/m 16,1 km/h (3 Bft) 95,74 %
30.05.2023 15:20 21,7 C 26,7 C 16,7 C 53 % 1025,1 hPa 0,0 l/m 2 min 0 min 860 W/m 9,7 km/h (2 Bft) 97,83 %
30.05.2023 15:22 21,7 C 26,7 C 17,2 C 53 % 1025,1 hPa 0,0 l/m 2 min 0 min 855 W/m 16,1 km/h (3 Bft) 97,87 %
30.05.2023 15:24 21,7 C 26,1 C 16,7 C 52 % 1025,1 hPa 0,0 l/m 2 min 0 min 855 W/m 12,9 km/h (3 Bft) 97,87 %
30.05.2023 15:26 21,7 C 26,1 C 17,2 C 53 % 1025,1 hPa 0,0 l/m 2 min 0 min 852 W/m 9,7 km/h (2 Bft) 95,74 %
30.05.2023 15:28 21,8 C 27,2 C 17,2 C 52 % 1025,1 hPa 0,0 l/m 2 min 0 min 841 W/m 12,9 km/h (3 Bft) 97,87 %
30.05.2023 15:30 21,9 C 27,2 C 17,2 C 53 % 1025,1 hPa 0,0 l/m 2 min 0 min 837 W/m 6,4 km/h (2 Bft) 100,00 %
30.05.2023 15:32 22,0 C 27,2 C 17,2 C 53 % 1025,1 hPa 0,0 l/m 2 min 0 min 837 W/m 16,1 km/h (3 Bft) 97,87 %
30.05.2023 15:34 22,0 C 27,2 C 17,2 C 52 % 1025,1 hPa 0,0 l/m 2 min 0 min 829 W/m 19,3 km/h (3 Bft) 95,65 %
30.05.2023 15:36 22,1 C 27,2 C 17,2 C 53 % 1025,0 hPa 0,0 l/m 2 min 0 min 818 W/m 12,9 km/h (3 Bft) 95,74 %
30.05.2023 15:38 22,1 C 27,8 C 17,2 C 53 % 1025,0 hPa 0,0 l/m 2 min 0 min 810 W/m 6,4 km/h (2 Bft) 97,87 %
30.05.2023 15:40 22,2 C 27,8 C 17,2 C 52 % 1025,0 hPa 0,0 l/m 2 min 0 min 805 W/m 12,9 km/h (3 Bft) 93,62 %
30.05.2023 15:42 22,2 C 27,2 C 17,2 C 52 % 1025,0 hPa 0,0 l/m 2 min 0 min 803 W/m 16,1 km/h (3 Bft) 95,74 %
30.05.2023 15:44 22,2 C 26,7 C 17,2 C 52 % 1025,0 hPa 0,0 l/m 2 min 0 min 798 W/m 22,5 km/h (4 Bft) 97,87 %
30.05.2023 15:46 22,2 C 27,2 C 17,2 C 51 % 1025,0 hPa 0,0 l/m 2 min 0 min 795 W/m 12,9 km/h (3 Bft) 95,74 %
30.05.2023 15:48 22,2 C 27,2 C 17,2 C 52 % 1024,9 hPa 0,0 l/m 2 min 0 min 792 W/m 9,7 km/h (2 Bft) 97,83 %
30.05.2023 15:50 22,2 C 27,2 C 17,2 C 52 % 1024,9 hPa 0,0 l/m 2 min 0 min 798 W/m 16,1 km/h (3 Bft) 97,87 %
30.05.2023 15:52 22,2 C 27,8 C 17,2 C 52 % 1024,8 hPa 0,0 l/m 2 min 0 min 798 W/m 12,9 km/h (3 Bft) 97,87 %
30.05.2023 15:54 22,3 C 27,8 C 17,8 C 52 % 1024,9 hPa 0,0 l/m 2 min 0 min 799 W/m 9,7 km/h (2 Bft) 97,87 %
30.05.2023 15:56 22,3 C 27,8 C 17,8 C 52 % 1024,8 hPa 0,0 l/m 2 min 0 min 795 W/m 16,1 km/h (3 Bft) 95,74 %
30.05.2023 15:58 22,2 C 26,1 C 17,2 C 50 % 1024,8 hPa 0,0 l/m 2 min 0 min 789 W/m 22,5 km/h (4 Bft) 97,87 %
30.05.2023 16:00 22,1 C 26,1 C 17,2 C 51 % 1024,8 hPa 0,0 l/m 2 min 0 min 786 W/m 12,9 km/h (3 Bft) 97,83 %
30.05.2023 16:02 22,1 C 26,1 C 17,2 C 51 % 1024,8 hPa 0,0 l/m 2 min 0 min 787 W/m 16,1 km/h (3 Bft) 97,87 %
30.05.2023 16:04 22,2 C 26,1 C 17,2 C 51 % 1024,8 hPa 0,0 l/m 2 min 0 min 785 W/m 12,9 km/h (3 Bft) 97,87 %
30.05.2023 16:06 22,2 C 26,7 C 17,8 C 52 % 1024,7 hPa 0,0 l/m 2 min 0 min 778 W/m 9,7 km/h (2 Bft) 97,87 %
30.05.2023 16:08 22,3 C 27,2 C 17,8 C 52 % 1024,7 hPa 0,0 l/m 2 min 0 min 769 W/m 12,9 km/h (3 Bft) 100,00 %
30.05.2023 16:10 22,3 C 27,8 C 17,8 C 52 % 1024,6 hPa 0,0 l/m 2 min 0 min 770 W/m 9,7 km/h (2 Bft) 100,00 %
30.05.2023 16:12 22,4 C 27,8 C 17,8 C 53 % 1024,6 hPa 0,0 l/m 2 min 0 min 765 W/m 9,7 km/h (2 Bft) 100,00 %
30.05.2023 16:14 22,5 C 27,8 C 17,8 C 53 % 1024,6 hPa 0,0 l/m 2 min 0 min 755 W/m 9,7 km/h (2 Bft) 100,00 %
30.05.2023 16:16 22,5 C 26,7 C 17,8 C 51 % 1024,7 hPa 0,0 l/m 2 min 0 min 752 W/m 16,1 km/h (3 Bft) 100,00 %
30.05.2023 16:18 22,5 C 26,1 C 17,8 C 51 % 1024,6 hPa 0,0 l/m 2 min 0 min 748 W/m 19,3 km/h (3 Bft) 100,00 %
30.05.2023 16:20 22,5 C 26,1 C 17,8 C 51 % 1024,6 hPa 0,0 l/m 2 min 0 min 745 W/m 12,9 km/h (3 Bft) 100,00 %
30.05.2023 16:22 22,5 C 27,2 C 17,8 C 51 % 1024,5 hPa 0,0 l/m 2 min 0 min 742 W/m 12,9 km/h (3 Bft) 100,00 %
30.05.2023 16:24 22,6 C 26,7 C 17,8 C 52 % 1024,5 hPa 0,0 l/m 2 min 0 min 735 W/m 16,1 km/h (3 Bft) 100,00 %
30.05.2023 16:26 22,5 C 26,7 C 17,8 C 51 % 1024,6 hPa 0,0 l/m 2 min 0 min 728 W/m 19,3 km/h (3 Bft) 97,87 %
30.05.2023 16:28 22,4 C 26,7 C 17,8 C 51 % 1024,6 hPa 0,0 l/m 2 min 0 min 722 W/m 16,1 km/h (3 Bft) 100,00 %
30.05.2023 16:30 22,4 C 26,7 C 17,8 C 51 % 1024,5 hPa 0,0 l/m 2 min 0 min 717 W/m 12,9 km/h (3 Bft) 97,87 %
30.05.2023 16:32 22,4 C 26,7 C 17,8 C 51 % 1024,5 hPa 0,0 l/m 2 min 0 min 716 W/m 12,9 km/h (3 Bft) 97,87 %
30.05.2023 16:34 22,4 C 27,2 C 17,8 C 52 % 1024,5 hPa 0,0 l/m 2 min 0 min 714 W/m 9,7 km/h (2 Bft) 97,87 %
30.05.2023 16:36 22,5 C 27,2 C 17,8 C 52 % 1024,5 hPa 0,0 l/m 2 min 0 min 710 W/m 12,9 km/h (3 Bft) 97,87 %
30.05.2023 16:38 22,5 C 27,2 C 18,3 C 52 % 1024,5 hPa 0,0 l/m 2 min 0 min 711 W/m 9,7 km/h (2 Bft) 97,87 %
30.05.2023 16:40 22,6 C 27,2 C 18,3 C 52 % 1024,4 hPa 0,0 l/m 2 min 0 min 703 W/m 9,7 km/h (2 Bft) 97,87 %
30.05.2023 16:42 22,7 C 27,8 C 18,3 C 53 % 1024,4 hPa 0,0 l/m 2 min 0 min 698 W/m 9,7 km/h (2 Bft) 95,74 %
30.05.2023 16:44 22,8 C 28,3 C 18,3 C 53 % 1024,5 hPa 0,0 l/m 2 min 0 min 696 W/m 16,1 km/h (3 Bft) 97,83 %
30.05.2023 16:46 22,8 C 27,8 C 18,3 C 52 % 1024,4 hPa 0,0 l/m 2 min 0 min 690 W/m 12,9 km/h (3 Bft) 97,87 %
30.05.2023 16:48 22,8 C 27,8 C 18,3 C 52 % 1024,4 hPa 0,0 l/m 2 min 0 min 681 W/m 12,9 km/h (3 Bft) 97,87 %
30.05.2023 16:50 22,7 C 27,2 C 18,3 C 52 % 1024,4 hPa 0,0 l/m 2 min 0 min 674 W/m 16,1 km/h (3 Bft) 97,87 %
30.05.2023 16:52 22,6 C 26,1 C 18,3 C 52 % 1024,4 hPa 0,0 l/m 2 min 0 min 674 W/m 29,0 km/h (5 Bft) 97,87 %
30.05.2023 16:54 22,6 C 27,2 C 18,3 C 53 % 1024,4 hPa 0,0 l/m 2 min 0 min 670 W/m 9,7 km/h (2 Bft) 97,87 %
30.05.2023 16:56 22,6 C 26,7 C 18,3 C 52 % 1024,4 hPa 0,0 l/m 2 min 0 min 662 W/m 16,1 km/h (3 Bft) 97,87 %
30.05.2023 16:58 22,5 C 26,7 C 18,3 C 51 % 1024,4 hPa 0,0 l/m 2 min 0 min 656 W/m 16,1 km/h (3 Bft) 95,65 %
30.05.2023 17:00 22,5 C 26,7 C 18,3 C 52 % 1024,4 hPa 0,0 l/m 2 min 0 min 652 W/m 12,9 km/h (3 Bft) 97,87 %
30.05.2023 17:02 22,6 C 27,2 C 18,9 C 52 % 1024,5 hPa 0,0 l/m 2 min 0 min 647 W/m 12,9 km/h (3 Bft) 97,87 %
30.05.2023 17:04 22,6 C 27,2 C 18,9 C 52 % 1024,4 hPa 0,0 l/m 2 min 0 min 647 W/m 19,3 km/h (3 Bft) 95,83 %
30.05.2023 17:06 22,7 C 27,8 C 18,9 C 52 % 1024,4 hPa 0,0 l/m 2 min 0 min 646 W/m 9,7 km/h (2 Bft) 97,87 %
30.05.2023 17:08 22,8 C 27,8 C 18,9 C 52 % 1024,4 hPa 0,0 l/m 2 min 0 min 638 W/m 6,4 km/h (2 Bft) 97,87 %
30.05.2023 17:10 22,8 C 27,2 C 18,9 C 52 % 1024,4 hPa 0,0 l/m 2 min 0 min 637 W/m 9,7 km/h (2 Bft) 97,87 %
30.05.2023 17:12 22,9 C 27,8 C 18,9 C 53 % 1024,4 hPa 0,0 l/m 2 min 0 min 628 W/m 25,7 km/h (4 Bft) 97,83 %
30.05.2023 17:14 22,9 C 27,2 C 18,9 C 52 % 1024,5 hPa 0,0 l/m 2 min 0 min 620 W/m 32,2 km/h (5 Bft) 97,87 %
30.05.2023 17:16 22,9 C 26,7 C 18,9 C 51 % 1024,4 hPa 0,0 l/m 2 min 0 min 618 W/m 19,3 km/h (3 Bft) 100,00 %
30.05.2023 17:18 22,8 C 26,7 C 18,9 C 52 % 1024,4 hPa 0,0 l/m 2 min 0 min 614 W/m 12,9 km/h (3 Bft) 100,00 %
30.05.2023 17:20 22,9 C 27,2 C 19,4 C 52 % 1024,3 hPa 0,0 l/m 2 min 0 min 610 W/m 9,7 km/h (2 Bft) 97,87 %
30.05.2023 17:22 22,9 C 27,2 C 18,9 C 52 % 1024,3 hPa 0,0 l/m 2 min 0 min 602 W/m 19,3 km/h (3 Bft) 100,00 %
30.05.2023 17:24 22,8 C 27,2 C 18,9 C 52 % 1024,2 hPa 0,0 l/m 2 min 0 min 599 W/m 12,9 km/h (3 Bft) 100,00 %
30.05.2023 17:26 22,8 C 26,7 C 18,9 C 52 % 1024,2 hPa 0,0 l/m 2 min 0 min 591 W/m 9,7 km/h (2 Bft) 100,00 %
30.05.2023 17:28 22,8 C 27,2 C 19,4 C 53 % 1024,2 hPa 0,0 l/m 2 min 0 min 591 W/m 16,1 km/h (3 Bft) 100,00 %
30.05.2023 17:30 22,8 C 27,2 C 19,4 C 52 % 1024,2 hPa 0,0 l/m 2 min 0 min 586 W/m 19,3 km/h (3 Bft) 97,83 %
30.05.2023 17:32 22,8 C 27,2 C 19,4 C 52 % 1024,2 hPa 0,0 l/m 2 min 0 min 572 W/m 12,9 km/h (3 Bft) 97,87 %
30.05.2023 17:34 22,8 C 26,7 C 19,4 C 52 % 1024,2 hPa 0,0 l/m 2 min 0 min 568 W/m 12,9 km/h (3 Bft) 100,00 %
30.05.2023 17:36 22,8 C 26,7 C 19,4 C 52 % 1024,2 hPa 0,0 l/m 2 min 0 min 563 W/m 19,3 km/h (3 Bft) 97,87 %
30.05.2023 17:38 22,8 C 26,7 C 19,4 C 52 % 1024,1 hPa 0,0 l/m 2 min 0 min 561 W/m 12,9 km/h (3 Bft) 97,87 %
30.05.2023 17:40 22,8 C 26,7 C 19,4 C 52 % 1024,2 hPa 0,0 l/m 2 min 0 min 550 W/m 12,9 km/h (3 Bft) 97,87 %
30.05.2023 17:42 22,8 C 27,2 C 19,4 C 52 % 1024,2 hPa 0,0 l/m 2 min 0 min 549 W/m 16,1 km/h (3 Bft) 95,65 %
30.05.2023 17:44 22,8 C 26,7 C 19,4 C 52 % 1024,1 hPa 0,0 l/m 2 min 0 min 549 W/m 16,1 km/h (3 Bft) 97,87 %
30.05.2023 17:46 22,7 C 26,1 C 18,9 C 53 % 1024,2 hPa 0,0 l/m 2 min 0 min 535 W/m 19,3 km/h (3 Bft) 95,74 %
30.05.2023 17:48 22,7 C 26,7 C 18,9 C 53 % 1024,2 hPa 0,0 l/m 2 min 0 min 528 W/m 12,9 km/h (3 Bft) 97,87 %
30.05.2023 17:50 22,7 C 26,7 C 18,9 C 52 % 1024,1 hPa 0,0 l/m 2 min 0 min 531 W/m 12,9 km/h (3 Bft) 95,74 %
30.05.2023 17:52 22,8 C 26,7 C 19,4 C 54 % 1024,1 hPa 0,0 l/m 2 min 0 min 518 W/m 12,9 km/h (3 Bft) 95,74 %
30.05.2023 17:54 22,8 C 26,7 C 19,4 C 53 % 1024,1 hPa 0,0 l/m 2 min 0 min 510 W/m 12,9 km/h (3 Bft) 95,74 %
30.05.2023 17:56 22,8 C 26,7 C 19,4 C 53 % 1024,1 hPa 0,0 l/m 2 min 0 min 500 W/m 12,9 km/h (3 Bft) 95,65 %
30.05.2023 17:58 22,8 C 26,7 C 18,9 C 53 % 1024,1 hPa 0,0 l/m 2 min 0 min 494 W/m 16,1 km/h (3 Bft) 95,74 %
30.05.2023 18:00 22,9 C 27,2 C 19,4 C 54 % 1024,1 hPa 0,0 l/m 2 min 0 min 492 W/m 12,9 km/h (3 Bft) 95,74 %
30.05.2023 18:02 22,8 C 26,7 C 19,4 C 53 % 1024,2 hPa 0,0 l/m 2 min 0 min 482 W/m 19,3 km/h (3 Bft) 95,74 %
30.05.2023 18:04 22,7 C 26,1 C 18,9 C 52 % 1024,1 hPa 0,0 l/m 2 min 0 min 484 W/m 12,9 km/h (3 Bft) 93,75 %
30.05.2023 18:07 22,6 C 27,2 C 19,4 C 53 % 1024,1 hPa 0,0 l/m 3 min 0 min 483 W/m 16,1 km/h (3 Bft) 93,75 %
30.05.2023 18:08 22,6 C 27,2 C 19,4 C 53 % 1024,1 hPa 0,0 l/m 1 min 0 min 485 W/m 16,1 km/h (3 Bft) 96,08 %
30.05.2023 18:12 22,6 C 27,8 C 19,4 C 53 % 1024,0 hPa 0,0 l/m 4 min 0 min 467 W/m 9,7 km/h (2 Bft) 97,96 %
30.05.2023 18:14 22,6 C 27,8 C 20,0 C 54 % 1024,0 hPa 0,0 l/m 2 min 0 min 459 W/m 9,7 km/h (2 Bft) 97,87 %
30.05.2023 18:16 22,6 C 27,2 C 19,4 C 53 % 1024,0 hPa 0,0 l/m 2 min 0 min 449 W/m 19,3 km/h (3 Bft) 95,74 %
30.05.2023 18:18 22,6 C 27,8 C 19,4 C 53 % 1023,9 hPa 0,0 l/m 2 min 0 min 448 W/m 16,1 km/h (3 Bft) 97,87 %
30.05.2023 18:20 22,6 C 27,2 C 19,4 C 53 % 1024,0 hPa 0,0 l/m 2 min 0 min 445 W/m 12,9 km/h (3 Bft) 97,87 %
30.05.2023 18:22 22,6 C 26,7 C 19,4 C 54 % 1023,9 hPa 0,0 l/m 2 min 0 min 441 W/m 16,1 km/h (3 Bft) 97,83 %
30.05.2023 18:24 22,6 C 27,2 C 19,4 C 54 % 1023,9 hPa 0,0 l/m 2 min 0 min 435 W/m 9,7 km/h (2 Bft) 97,87 %
30.05.2023 18:26 22,6 C 26,7 C 19,4 C 53 % 1023,9 hPa 0,0 l/m 2 min 0 min 428 W/m 29,0 km/h (5 Bft) 97,87 %
30.05.2023 18:28 22,6 C 27,2 C 19,4 C 53 % 1023,9 hPa 0,0 l/m 2 min 0 min 424 W/m 12,9 km/h (3 Bft) 97,87 %
30.05.2023 18:30 22,5 C 26,7 C 19,4 C 53 % 1023,9 hPa 0,0 l/m 2 min 0 min 418 W/m 19,3 km/h (3 Bft) 97,87 %
30.05.2023 18:32 22,3 C 25,6 C 18,9 C 53 % 1023,9 hPa 0,0 l/m 2 min 0 min 410 W/m 16,1 km/h (3 Bft) 97,87 %
30.05.2023 18:34 22,3 C 26,1 C 18,9 C 54 % 1023,9 hPa 0,0 l/m 2 min 0 min 401 W/m 6,4 km/h (2 Bft) 97,87 %
30.05.2023 18:36 22,3 C 26,7 C 19,4 C 54 % 1023,9 hPa 0,0 l/m 2 min 0 min 400 W/m 19,3 km/h (3 Bft) 97,83 %
30.05.2023 18:38 22,3 C 27,2 C 19,4 C 53 % 1023,9 hPa 0,0 l/m 2 min 0 min 390 W/m 9,7 km/h (2 Bft) 100,00 %
30.05.2023 18:40 22,3 C 26,1 C 18,9 C 53 % 1023,9 hPa 0,0 l/m 2 min 0 min 384 W/m 12,9 km/h (3 Bft) 97,87 %
30.05.2023 18:42 22,2 C 26,1 C 18,9 C 54 % 1023,8 hPa 0,0 l/m 2 min 0 min 377 W/m 6,4 km/h (2 Bft) 95,74 %
30.05.2023 18:44 22,2 C 27,2 C 18,9 C 54 % 1023,8 hPa 0,0 l/m 2 min 0 min 371 W/m 16,1 km/h (3 Bft) 97,87 %
30.05.2023 18:46 22,2 C 26,7 C 18,9 C 54 % 1023,9 hPa 0,0 l/m 2 min 0 min 367 W/m 12,9 km/h (3 Bft) 100,00 %
30.05.2023 18:48 22,2 C 26,1 C 18,9 C 53 % 1023,8 hPa 0,0 l/m 2 min 0 min 360 W/m 9,7 km/h (2 Bft) 100,00 %
30.05.2023 18:50 22,3 C 26,7 C 18,9 C 54 % 1023,9 hPa 0,0 l/m 2 min 0 min 353 W/m 19,3 km/h (3 Bft) 100,00 %
30.05.2023 18:52 22,3 C 26,7 C 18,9 C 54 % 1023,9 hPa 0,0 l/m 2 min 0 min 349 W/m 12,9 km/h (3 Bft) 100,00 %
30.05.2023 18:54 22,3 C 26,1 C 18,9 C 54 % 1023,9 hPa 0,0 l/m 2 min 0 min 344 W/m 16,1 km/h (3 Bft) 100,00 %
30.05.2023 18:56 22,3 C 26,1 C 18,9 C 54 % 1023,9 hPa 0,0 l/m 2 min 0 min 338 W/m 25,7 km/h (4 Bft) 100,00 %
30.05.2023 18:58 22,2 C 25,6 C 18,3 C 54 % 1023,9 hPa 0,0 l/m 2 min 0 min 330 W/m 16,1 km/h (3 Bft) 100,00 %
30.05.2023 19:00 22,1 C 25,6 C 18,3 C 54 % 1024,0 hPa 0,0 l/m 2 min 0 min 324 W/m 12,9 km/h (3 Bft) 100,00 %
30.05.2023 19:02 22,0 C 25,0 C 18,3 C 54 % 1024,0 hPa 0,0 l/m 2 min 0 min 317 W/m 19,3 km/h (3 Bft) 100,00 %
30.05.2023 19:04 21,8 C 24,4 C 17,8 C 54 % 1024,0 hPa 0,0 l/m 2 min 0 min 312 W/m 19,3 km/h (3 Bft) 95,83 %
30.05.2023 19:06 21,8 C 25,0 C 17,8 C 54 % 1024,0 hPa 0,0 l/m 2 min 0 min 306 W/m 12,9 km/h (3 Bft) 98,28 %
30.05.2023 19:08 21,8 C 25,0 C 17,8 C 54 % 1024,0 hPa 0,0 l/m 2 min 0 min 296 W/m 12,9 km/h (3 Bft) 97,14 %
30.05.2023 19:10 21,8 C 25,0 C 17,2 C 55 % 1023,9 hPa 0,0 l/m 2 min 0 min 293 W/m 12,9 km/h (3 Bft) 97,87 %
30.05.2023 19:12 21,8 C 25,0 C 17,2 C 55 % 1024,0 hPa 0,0 l/m 2 min 0 min 286 W/m 12,9 km/h (3 Bft) 97,87 %
30.05.2023 19:14 21,7 C 25,6 C 17,2 C 55 % 1024,0 hPa 0,0 l/m 2 min 0 min 279 W/m 9,7 km/h (2 Bft) 97,87 %
30.05.2023 19:16 21,7 C 25,6 C 17,2 C 55 % 1024,0 hPa 0,0 l/m 2 min 0 min 273 W/m 6,4 km/h (2 Bft) 95,74 %
30.05.2023 19:18 21,7 C 25,0 C 17,2 C 55 % 1024,0 hPa 0,0 l/m 2 min 0 min 270 W/m 12,9 km/h (3 Bft) 97,83 %
30.05.2023 19:20 21,6 C 25,0 C 16,7 C 55 % 1024,0 hPa 0,0 l/m 2 min 0 min 264 W/m 12,9 km/h (3 Bft) 95,74 %
30.05.2023 19:22 21,6 C 24,4 C 16,7 C 55 % 1024,0 hPa 0,0 l/m 2 min 0 min 258 W/m 9,7 km/h (2 Bft) 97,87 %
30.05.2023 19:24 21,6 C 23,9 C 16,7 C 55 % 1024,0 hPa 0,0 l/m 2 min 0 min 252 W/m 16,1 km/h (3 Bft) 97,87 %
30.05.2023 19:26 21,5 C 23,3 C 16,7 C 56 % 1024,1 hPa 0,0 l/m 2 min 0 min 245 W/m 16,1 km/h (3 Bft) 97,87 %
30.05.2023 19:28 21,4 C 22,2 C 16,7 C 56 % 1024,1 hPa 0,0 l/m 2 min 0 min 236 W/m 12,9 km/h (3 Bft) 95,74 %
30.05.2023 19:30 21,3 C 21,7 C 16,7 C 56 % 1024,0 hPa 0,0 l/m 2 min 0 min 229 W/m 9,7 km/h (2 Bft) 97,87 %
30.05.2023 19:32 21,2 C 21,1 C 16,7 C 56 % 1024,1 hPa 0,0 l/m 2 min 0 min 223 W/m 12,9 km/h (3 Bft) 93,48 %
30.05.2023 19:34 21,1 C 20,6 C 16,7 C 56 % 1024,1 hPa 0,0 l/m 2 min 0 min 219 W/m 16,1 km/h (3 Bft) 95,74 %
30.05.2023 19:36 21,1 C 20,6 C 16,7 C 56 % 1024,1 hPa 0,0 l/m 2 min 0 min 212 W/m 32,2 km/h (5 Bft) 97,87 %
30.05.2023 19:38 20,9 C 20,6 C 16,1 C 56 % 1024,1 hPa 0,0 l/m 2 min 0 min 206 W/m 6,4 km/h (2 Bft) 95,74 %
30.05.2023 19:40 20,9 C 20,0 C 16,1 C 56 % 1024,1 hPa 0,0 l/m 2 min 0 min 198 W/m 16,1 km/h (3 Bft) 97,87 %
30.05.2023 19:42 20,8 C 20,0 C 16,1 C 56 % 1024,1 hPa 0,0 l/m 2 min 0 min 193 W/m 22,5 km/h (4 Bft) 97,87 %
30.05.2023 19:44 20,8 C 20,0 C 16,1 C 56 % 1024,1 hPa 0,0 l/m 2 min 0 min 186 W/m 12,9 km/h (3 Bft) 95,74 %
30.05.2023 19:46 20,7 C 20,0 C 16,1 C 57 % 1024,1 hPa 0,0 l/m 2 min 0 min 163 W/m 12,9 km/h (3 Bft) 97,83 %
30.05.2023 19:48 20,6 C 20,0 C 16,1 C 57 % 1024,1 hPa 0,0 l/m 0 min 0 min 95 W/m 9,7 km/h (2 Bft) 97,87 %
30.05.2023 19:50 20,6 C 20,0 C 16,1 C 58 % 1024,1 hPa 0,0 l/m 0 min 0 min 57 W/m 19,3 km/h (3 Bft) 95,74 %
30.05.2023 19:52 20,5 C 20,0 C 16,1 C 58 % 1024,1 hPa 0,0 l/m 0 min 0 min 53 W/m 9,7 km/h (2 Bft) 97,87 %
30.05.2023 19:54 20,4 C 20,0 C 16,1 C 58 % 1024,1 hPa 0,0 l/m 0 min 0 min 52 W/m 6,4 km/h (2 Bft) 97,87 %
30.05.2023 19:56 20,4 C 19,4 C 16,1 C 58 % 1024,1 hPa 0,0 l/m 0 min 0 min 50 W/m 9,7 km/h (2 Bft) 97,87 %
30.05.2023 19:58 20,4 C 19,4 C 16,1 C 58 % 1024,1 hPa 0,0 l/m 0 min 0 min 49 W/m 9,7 km/h (2 Bft) 97,83 %
30.05.2023 20:00 20,4 C 19,4 C 16,1 C 58 % 1024,1 hPa 0,0 l/m 0 min 0 min 47 W/m 9,7 km/h (2 Bft) 97,87 %
30.05.2023 20:02 20,3 C 19,4 C 16,1 C 59 % 1024,1 hPa 0,0 l/m 0 min 0 min 46 W/m 9,7 km/h (2 Bft) 97,87 %
30.05.2023 20:04 20,3 C 19,4 C 16,1 C 58 % 1024,1 hPa 0,0 l/m 0 min 0 min 46 W/m 12,9 km/h (3 Bft) 97,92 %
30.05.2023 20:06 20,3 C 19,4 C 15,6 C 58 % 1024,1 hPa 0,0 l/m 0 min 0 min 44 W/m 6,4 km/h (2 Bft) 96,61 %
30.05.2023 20:08 20,2 C 19,4 C 16,1 C 59 % 1024,1 hPa 0,0 l/m 0 min 0 min 43 W/m 6,4 km/h (2 Bft) 100,00 %
30.05.2023 20:10 20,2 C 19,4 C 15,6 C 58 % 1024,2 hPa 0,0 l/m 0 min 0 min 42 W/m 16,1 km/h (3 Bft) 97,87 %
30.05.2023 20:12 20,2 C 19,4 C 15,6 C 59 % 1024,2 hPa 0,0 l/m 0 min 0 min 41 W/m 12,9 km/h (3 Bft) 97,87 %
30.05.2023 20:14 20,1 C 19,4 C 15,6 C 59 % 1024,2 hPa 0,0 l/m 0 min 0 min 40 W/m 16,1 km/h (3 Bft) 93,48 %
30.05.2023 20:16 20,1 C 19,4 C 15,6 C 59 % 1024,3 hPa 0,0 l/m 0 min 0 min 39 W/m 6,4 km/h (2 Bft) 95,74 %
30.05.2023 20:18 20,0 C 19,4 C 15,6 C 61 % 1024,3 hPa 0,0 l/m 0 min 0 min 38 W/m 0,0 km/h (0 Bft) 100,00 %
30.05.2023 20:20 19,9 C 18,9 C 15,6 C 62 % 1024,3 hPa 0,0 l/m 0 min 0 min 37 W/m 0,0 km/h (0 Bft) 100,00 %
30.05.2023 20:22 19,9 C 18,9 C 15,6 C 64 % 1024,3 hPa 0,0 l/m 0 min 0 min 36 W/m 6,4 km/h (2 Bft) 95,74 %
30.05.2023 20:24 19,8 C 18,9 C 15,0 C 65 % 1024,3 hPa 0,0 l/m 0 min 0 min 35 W/m 12,9 km/h (3 Bft) 100,00 %
30.05.2023 20:26 19,7 C 18,9 C 15,0 C 65 % 1024,3 hPa 0,0 l/m 0 min 0 min 34 W/m 19,3 km/h (3 Bft) 100,00 %
30.05.2023 20:28 19,6 C 18,3 C 15,0 C 66 % 1024,3 hPa 0,0 l/m 0 min 0 min 33 W/m 12,9 km/h (3 Bft) 100,00 %
30.05.2023 20:30 19,4 C 18,3 C 15,0 C 66 % 1024,3 hPa 0,0 l/m 0 min 0 min 32 W/m 12,9 km/h (3 Bft) 100,00 %
30.05.2023 20:32 19,3 C 18,3 C 15,0 C 67 % 1024,3 hPa 0,0 l/m 0 min 0 min 32 W/m 12,9 km/h (3 Bft) 100,00 %
30.05.2023 20:34 19,2 C 18,3 C 14,4 C 67 % 1024,3 hPa 0,0 l/m 0 min 0 min 30 W/m 12,9 km/h (3 Bft) 97,87 %
30.05.2023 20:36 19,1 C 18,3 C 14,4 C 67 % 1024,2 hPa 0,0 l/m 0 min 0 min 29 W/m 9,7 km/h (2 Bft) 97,87 %
30.05.2023 20:38 19,0 C 18,3 C 14,4 C 68 % 1024,3 hPa 0,0 l/m 0 min 0 min 28 W/m 16,1 km/h (3 Bft) 100,00 %
30.05.2023 20:40 18,9 C 17,8 C 14,4 C 68 % 1024,3 hPa 0,0 l/m 0 min 0 min 28 W/m 16,1 km/h (3 Bft) 100,00 %
30.05.2023 20:42 18,8 C 17,8 C 14,4 C 68 % 1024,3 hPa 0,0 l/m 0 min 0 min 26 W/m 16,1 km/h (3 Bft) 100,00 %
30.05.2023 20:44 18,8 C 17,8 C 14,4 C 68 % 1024,3 hPa 0,0 l/m 0 min 0 min 26 W/m 12,9 km/h (3 Bft) 100,00 %
30.05.2023 20:46 18,8 C 18,3 C 14,4 C 68 % 1024,3 hPa 0,0 l/m 0 min 0 min 25 W/m 9,7 km/h (2 Bft) 97,87 %
30.05.2023 20:48 18,8 C 17,8 C 14,4 C 68 % 1024,3 hPa 0,0 l/m 0 min 0 min 25 W/m 12,9 km/h (3 Bft) 97,87 %
30.05.2023 20:50 18,8 C 17,8 C 14,4 C 69 % 1024,3 hPa 0,0 l/m 0 min 0 min 23 W/m 25,7 km/h (4 Bft) 97,87 %
30.05.2023 20:52 18,7 C 18,3 C 14,4 C 68 % 1024,3 hPa 0,0 l/m 0 min 0 min 23 W/m 25,7 km/h (4 Bft) 97,83 %
30.05.2023 20:54 18,7 C 17,8 C 14,4 C 68 % 1024,3 hPa 0,0 l/m 0 min 0 min 20 W/m 12,9 km/h (3 Bft) 97,87 %
30.05.2023 20:56 18,7 C 17,8 C 14,4 C 68 % 1024,3 hPa 0,0 l/m 0 min 0 min 19 W/m 9,7 km/h (2 Bft) 97,87 %
30.05.2023 20:58 18,7 C 17,8 C 14,4 C 68 % 1024,3 hPa 0,0 l/m 0 min 0 min 18 W/m 16,1 km/h (3 Bft) 97,87 %
30.05.2023 21:00 18,7 C 17,8 C 14,4 C 68 % 1024,3 hPa 0,0 l/m 0 min 0 min 16 W/m 9,7 km/h (2 Bft) 95,74 %
30.05.2023 21:02 18,7 C 17,8 C 14,4 C 68 % 1024,3 hPa 0,0 l/m 0 min 0 min 16 W/m 19,3 km/h (3 Bft) 97,87 %
30.05.2023 21:04 18,6 C 17,8 C 13,9 C 68 % 1024,3 hPa 0,0 l/m 0 min 0 min 16 W/m 16,1 km/h (3 Bft) 97,96 %
30.05.2023 21:06 18,6 C 17,8 C 13,9 C 69 % 1024,4 hPa 0,0 l/m 0 min 0 min 14 W/m 9,7 km/h (2 Bft) 97,87 %
30.05.2023 21:08 18,4 C 17,8 C 13,9 C 69 % 1024,4 hPa 0,0 l/m 0 min 0 min 14 W/m 22,5 km/h (4 Bft) 97,83 %
30.05.2023 21:10 18,4 C 17,2 C 13,9 C 69 % 1024,5 hPa 0,0 l/m 0 min 0 min 14 W/m 12,9 km/h (3 Bft) 97,87 %
30.05.2023 21:12 18,3 C 17,2 C 13,9 C 69 % 1024,5 hPa 0,0 l/m 0 min 0 min 14 W/m 16,1 km/h (3 Bft) 97,87 %
30.05.2023 21:14 18,3 C 17,2 C 13,9 C 69 % 1024,5 hPa 0,0 l/m 0 min 0 min 13 W/m 16,1 km/h (3 Bft) 97,87 %
30.05.2023 21:16 18,2 C 17,2 C 13,9 C 70 % 1024,6 hPa 0,0 l/m 0 min 0 min 12 W/m 16,1 km/h (3 Bft) 97,87 %
30.05.2023 21:18 18,2 C 17,2 C 13,3 C 70 % 1024,7 hPa 0,0 l/m 0 min 0 min 12 W/m 25,7 km/h (4 Bft) 95,74 %
30.05.2023 21:20 18,1 C 17,2 C 13,3 C 70 % 1024,6 hPa 0,0 l/m 0 min 0 min 11 W/m 12,9 km/h (3 Bft) 97,83 %
30.05.2023 21:22 18,0 C 16,7 C 13,3 C 70 % 1024,6 hPa 0,0 l/m 0 min 0 min 11 W/m 19,3 km/h (3 Bft) 97,87 %
30.05.2023 21:24 17,9 C 16,7 C 13,3 C 70 % 1024,6 hPa 0,0 l/m 0 min 0 min 10 W/m 22,5 km/h (4 Bft) 97,87 %
30.05.2023 21:26 17,8 C 16,7 C 13,3 C 71 % 1024,7 hPa 0,0 l/m 0 min 0 min 9 W/m 22,5 km/h (4 Bft) 95,74 %
30.05.2023 21:28 17,7 C 16,7 C 13,3 C 71 % 1024,7 hPa 0,0 l/m 0 min 0 min 8 W/m 12,9 km/h (3 Bft) 95,74 %
30.05.2023 21:30 17,7 C 16,7 C 13,3 C 71 % 1024,7 hPa 0,0 l/m 0 min 0 min 7 W/m 16,1 km/h (3 Bft) 97,87 %
30.05.2023 21:32 17,6 C 16,7 C 12,8 C 71 % 1024,7 hPa 0,0 l/m 0 min 0 min 7 W/m 38,6 km/h (5 Bft) 97,87 %
30.05.2023 21:34 17,6 C 16,7 C 12,8 C 71 % 1024,7 hPa 0,0 l/m 0 min 0 min 5 W/m 16,1 km/h (3 Bft) 97,83 %
30.05.2023 21:36 17,5 C 16,7 C 12,8 C 71 % 1024,7 hPa 0,0 l/m 0 min 0 min 5 W/m 19,3 km/h (3 Bft) 97,87 %
30.05.2023 21:38 17,4 C 16,1 C 12,8 C 72 % 1024,8 hPa 0,0 l/m 0 min 0 min 5 W/m 19,3 km/h (3 Bft) 97,87 %
30.05.2023 21:40 17,4 C 16,1 C 12,8 C 72 % 1024,8 hPa 0,0 l/m 0 min 0 min 1 W/m 12,9 km/h (3 Bft) 97,87 %
30.05.2023 21:42 17,3 C 16,1 C 12,8 C 72 % 1024,8 hPa 0,0 l/m 0 min 0 min 0 W/m 22,5 km/h (4 Bft) 97,87 %
30.05.2023 21:44 17,2 C 16,1 C 12,8 C 72 % 1024,8 hPa 0,0 l/m 0 min 0 min 0 W/m 25,7 km/h (4 Bft) 97,87 %
30.05.2023 21:46 17,1 C 16,1 C 12,8 C 73 % 1024,8 hPa 0,0 l/m 0 min 0 min 0 W/m 22,5 km/h (4 Bft) 93,62 %
30.05.2023 21:48 17,1 C 16,1 C 12,8 C 73 % 1024,9 hPa 0,0 l/m 0 min 0 min 0 W/m 22,5 km/h (4 Bft) 95,65 %
30.05.2023 21:50 17,0 C 16,1 C 12,2 C 73 % 1024,9 hPa 0,0 l/m 0 min 0 min 0 W/m 16,1 km/h (3 Bft) 95,74 %
30.05.2023 21:52 16,9 C 16,1 C 12,2 C 73 % 1025,0 hPa 0,0 l/m 0 min 0 min 0 W/m 19,3 km/h (3 Bft) 95,74 %
30.05.2023 21:54 16,8 C 16,1 C 12,2 C 73 % 1025,0 hPa 0,0 l/m 0 min 0 min 0 W/m 12,9 km/h (3 Bft) 93,62 %
30.05.2023 21:56 16,8 C 15,6 C 12,2 C 74 % 1024,9 hPa 0,0 l/m 0 min 0 min 0 W/m 22,5 km/h (4 Bft) 91,49 %
30.05.2023 21:58 16,7 C 15,6 C 12,2 C 74 % 1025,0 hPa 0,0 l/m 0 min 0 min 0 W/m 19,3 km/h (3 Bft) 95,74 %
30.05.2023 22:00 16,6 C 15,6 C 12,2 C 74 % 1025,1 hPa 0,0 l/m 0 min 0 min 0 W/m 16,1 km/h (3 Bft) 95,74 %
30.05.2023 22:02 16,6 C 15,6 C 12,2 C 74 % 1025,1 hPa 0,0 l/m 0 min 0 min 0 W/m 12,9 km/h (3 Bft) 95,65 %
30.05.2023 22:04 16,5 C 15,6 C 12,2 C 74 % 1025,1 hPa 0,0 l/m 0 min 0 min 0 W/m 12,9 km/h (3 Bft) 95,92 %
30.05.2023 22:06 16,4 C 15,6 C 12,2 C 74 % 1025,1 hPa 0,0 l/m 0 min 0 min 0 W/m 12,9 km/h (3 Bft) 95,74 %
30.05.2023 22:08 16,3 C 15,6 C 11,7 C 74 % 1025,1 hPa 0,0 l/m 0 min 0 min 0 W/m 9,7 km/h (2 Bft) 95,74 %
30.05.2023 22:10 16,3 C 15,6 C 11,7 C 75 % 1025,1 hPa 0,0 l/m 0 min 0 min 0 W/m 19,3 km/h (3 Bft) 93,62 %
30.05.2023 22:12 16,3 C 15,6 C 11,7 C 75 % 1025,1 hPa 0,0 l/m 0 min 0 min 0 W/m 12,9 km/h (3 Bft) 97,83 %
30.05.2023 22:14 16,2 C 15,0 C 11,7 C 75 % 1025,1 hPa 0,0 l/m 0 min 0 min 0 W/m 12,9 km/h (3 Bft) 97,87 %
30.05.2023 22:16 16,2 C 15,0 C 11,7 C 76 % 1025,2 hPa 0,0 l/m 0 min 0 min 0 W/m 9,7 km/h (2 Bft) 95,74 %
30.05.2023 22:18 16,1 C 15,0 C 11,7 C 76 % 1025,2 hPa 0,0 l/m 0 min 0 min 0 W/m 9,7 km/h (2 Bft) 97,87 %
30.05.2023 22:20 16,1 C 15,6 C 11,7 C 76 % 1025,2 hPa 0,0 l/m 0 min 0 min 0 W/m 9,7 km/h (2 Bft) 97,87 %
30.05.2023 22:22 16,1 C 15,0 C 11,7 C 76 % 1025,2 hPa 0,0 l/m 0 min 0 min 0 W/m 6,4 km/h (2 Bft) 97,87 %
30.05.2023 22:24 16,1 C 15,0 C 11,7 C 76 % 1025,3 hPa 0,0 l/m 0 min 0 min 0 W/m 16,1 km/h (3 Bft) 97,87 %
30.05.2023 22:26 16,0 C 15,0 C 11,7 C 76 % 1025,2 hPa 0,0 l/m 0 min 0 min 0 W/m 9,7 km/h (2 Bft) 97,83 %
30.05.2023 22:28 15,9 C 15,0 C 11,7 C 76 % 1025,2 hPa 0,0 l/m 0 min 0 min 0 W/m 6,4 km/h (2 Bft) 93,75 %
30.05.2023 22:30 15,9 C 15,0 C 11,7 C 76 % 1025,2 hPa 0,0 l/m 0 min 0 min 0 W/m 16,1 km/h (3 Bft) 97,87 %
30.05.2023 22:32 15,9 C 15,0 C 11,7 C 76 % 1025,1 hPa 0,0 l/m 0 min 0 min 0 W/m 12,9 km/h (3 Bft) 97,87 %
30.05.2023 22:34 15,8 C 15,0 C 11,1 C 77 % 1025,1 hPa 0,0 l/m 0 min 0 min 0 W/m 25,7 km/h (4 Bft) 97,87 %
30.05.2023 22:36 15,8 C 15,0 C 11,1 C 77 % 1025,1 hPa 0,0 l/m 0 min 0 min 0 W/m 12,9 km/h (3 Bft) 97,87 %
30.05.2023 22:38 15,7 C 14,4 C 11,1 C 77 % 1025,2 hPa 0,0 l/m 0 min 0 min 0 W/m 16,1 km/h (3 Bft) 95,65 %
30.05.2023 22:40 15,7 C 14,4 C 11,1 C 77 % 1025,1 hPa 0,0 l/m 0 min 0 min 0 W/m 22,5 km/h (4 Bft) 95,74 %
30.05.2023 22:42 15,7 C 14,4 C 11,1 C 77 % 1025,1 hPa 0,0 l/m 0 min 0 min 0 W/m 9,7 km/h (2 Bft) 97,87 %
30.05.2023 22:44 15,6 C 14,4 C 11,1 C 77 % 1025,1 hPa 0,0 l/m 0 min 0 min 0 W/m 12,9 km/h (3 Bft) 100,00 %
30.05.2023 22:46 15,6 C 14,4 C 11,1 C 77 % 1025,1 hPa 0,0 l/m 0 min 0 min 0 W/m 12,9 km/h (3 Bft) 97,87 %
30.05.2023 22:48 15,5 C 14,4 C 11,1 C 77 % 1025,1 hPa 0,0 l/m 0 min 0 min 0 W/m 16,1 km/h (3 Bft) 95,74 %
30.05.2023 22:50 15,5 C 14,4 C 11,1 C 78 % 1025,1 hPa 0,0 l/m 0 min 0 min 0 W/m 19,3 km/h (3 Bft) 100,00 %
30.05.2023 22:52 15,4 C 14,4 C 11,1 C 78 % 1025,1 hPa 0,0 l/m 0 min 0 min 0 W/m 19,3 km/h (3 Bft) 100,00 %
30.05.2023 22:54 15,4 C 14,4 C 11,1 C 78 % 1025,2 hPa 0,0 l/m 0 min 0 min 0 W/m 12,9 km/h (3 Bft) 97,92 %
30.05.2023 22:56 15,4 C 14,4 C 11,1 C 78 % 1025,2 hPa 0,0 l/m 0 min 0 min 0 W/m 9,7 km/h (2 Bft) 100,00 %
30.05.2023 22:58 15,3 C 14,4 C 11,1 C 78 % 1025,2 hPa 0,0 l/m 0 min 0 min 0 W/m 6,4 km/h (2 Bft) 97,87 %
30.05.2023 23:00 15,3 C 14,4 C 11,1 C 78 % 1025,2 hPa 0,0 l/m 0 min 0 min 0 W/m 6,4 km/h (2 Bft) 97,87 %
30.05.2023 23:02 15,3 C 14,4 C 11,1 C 78 % 1025,2 hPa 0,0 l/m 0 min 0 min 0 W/m 9,7 km/h (2 Bft) 97,87 %
30.05.2023 23:04 15,2 C 14,4 C 11,1 C 78 % 1025,2 hPa 0,0 l/m 0 min 0 min 0 W/m 19,3 km/h (3 Bft) 97,83 %
30.05.2023 23:06 15,2 C 14,4 C 11,1 C 78 % 1025,2 hPa 0,0 l/m 0 min 0 min 0 W/m 12,9 km/h (3 Bft) 97,92 %
30.05.2023 23:08 15,2 C 14,4 C 11,1 C 79 % 1025,1 hPa 0,0 l/m 0 min 0 min 0 W/m 6,4 km/h (2 Bft) 100,00 %
30.05.2023 23:10 15,1 C 14,4 C 10,6 C 79 % 1025,2 hPa 0,0 l/m 0 min 0 min 0 W/m 9,7 km/h (2 Bft) 100,00 %
30.05.2023 23:12 15,1 C 14,4 C 10,6 C 79 % 1025,1 hPa 0,0 l/m 0 min 0 min 0 W/m 19,3 km/h (3 Bft) 97,87 %
30.05.2023 23:14 15,1 C 14,4 C 10,6 C 79 % 1025,1 hPa 0,0 l/m 0 min 0 min 0 W/m 12,9 km/h (3 Bft) 97,87 %
30.05.2023 23:16 15,0 C 14,4 C 10,6 C 79 % 1025,2 hPa 0,0 l/m 0 min 0 min 0 W/m 9,7 km/h (2 Bft) 97,87 %
30.05.2023 23:18 14,9 C 14,4 C 10,6 C 79 % 1025,1 hPa 0,0 l/m 0 min 0 min 0 W/m 12,9 km/h (3 Bft) 93,62 %
30.05.2023 23:20 14,9 C 14,4 C 10,6 C 79 % 1025,2 hPa 0,0 l/m 0 min 0 min 0 W/m 9,7 km/h (2 Bft) 100,00 %
30.05.2023 23:22 14,9 C 14,4 C 10,6 C 79 % 1025,1 hPa 0,0 l/m 0 min 0 min 0 W/m 9,7 km/h (2 Bft) 97,87 %
30.05.2023 23:24 14,9 C 13,9 C 10,6 C 79 % 1025,1 hPa 0,0 l/m 0 min 0 min 0 W/m 12,9 km/h (3 Bft) 95,65 %
30.05.2023 23:26 14,9 C 13,9 C 10,6 C 79 % 1025,1 hPa 0,0 l/m 0 min 0 min 0 W/m 12,9 km/h (3 Bft) 97,87 %
30.05.2023 23:28 14,9 C 13,9 C 10,6 C 79 % 1025,1 hPa 0,0 l/m 0 min 0 min 0 W/m 16,1 km/h (3 Bft) 95,74 %
30.05.2023 23:30 14,9 C 13,9 C 10,6 C 79 % 1025,1 hPa 0,0 l/m 0 min 0 min 0 W/m 12,9 km/h (3 Bft) 93,62 %
30.05.2023 23:32 14,8 C 13,9 C 10,6 C 79 % 1025,1 hPa 0,0 l/m 0 min 0 min 0 W/m 9,7 km/h (2 Bft) 95,74 %
30.05.2023 23:34 14,8 C 13,9 C 10,6 C 79 % 1025,1 hPa 0,0 l/m 0 min 0 min 0 W/m 19,3 km/h (3 Bft) 93,62 %
30.05.2023 23:36 14,8 C 13,9 C 10,6 C 79 % 1025,1 hPa 0,0 l/m 0 min 0 min 0 W/m 16,1 km/h (3 Bft) 93,62 %
30.05.2023 23:38 14,8 C 13,9 C 10,6 C 79 % 1025,2 hPa 0,0 l/m 0 min 0 min 0 W/m 9,7 km/h (2 Bft) 95,65 %
30.05.2023 23:40 14,8 C 13,9 C 10,6 C 79 % 1025,1 hPa 0,0 l/m 0 min 0 min 0 W/m 12,9 km/h (3 Bft) 95,74 %
30.05.2023 23:42 14,8 C 13,9 C 10,6 C 79 % 1025,2 hPa 0,0 l/m 0 min 0 min 0 W/m 12,9 km/h (3 Bft) 93,62 %
30.05.2023 23:44 14,7 C 13,9 C 10,6 C 79 % 1025,1 hPa 0,0 l/m 0 min 0 min 0 W/m 9,7 km/h (2 Bft) 95,74 %
30.05.2023 23:46 14,7 C 13,9 C 10,6 C 79 % 1025,1 hPa 0,0 l/m 0 min 0 min 0 W/m 12,9 km/h (3 Bft) 91,49 %
30.05.2023 23:48 14,7 C 13,9 C 10,6 C 80 % 1025,1 hPa 0,0 l/m 0 min 0 min 0 W/m 12,9 km/h (3 Bft) 93,62 %
30.05.2023 23:50 14,6 C 13,9 C 10,6 C 80 % 1025,1 hPa 0,0 l/m 0 min 0 min 0 W/m 9,7 km/h (2 Bft) 95,65 %
30.05.2023 23:52 14,6 C 13,9 C 10,6 C 80 % 1025,1 hPa 0,0 l/m 0 min 0 min 0 W/m 9,7 km/h (2 Bft) 95,74 %
30.05.2023 23:54 14,6 C 13,9 C 10,6 C 80 % 1025,1 hPa 0,0 l/m 0 min 0 min 0 W/m 16,1 km/h (3 Bft) 93,62 %
30.05.2023 23:56 14,6 C 13,9 C 10,6 C 80 % 1025,0 hPa 0,0 l/m 0 min 0 min 0 W/m 9,7 km/h (2 Bft) 95,74 %
30.05.2023 23:58 14,5 C 13,9 C 10,6 C 80 % 1025,1 hPa 0,0 l/m 0 min 0 min 0 W/m 12,9 km/h (3 Bft) 97,87 %
_ Min-Zeit 05:40 04:58 05:28 15:58 18:42 - - - - 20:18 11:30
Minimum _ 9,2 C 8,3 C 5,0 C 50 % 1023,8 hPa - - - - 0,0 km/h (0 Bft) 89,36 %
_ Max-Zeit 17:12 16:44 13:40 06:16 09:38 00:00 18:12 00:00 13:14 21:32 00:02
Maximum _ 22,9 C 28,3 C 23,3 C 87 % 1027,2 hPa 0,0 l/m 4 min 0 min 931 W/m 38,6 km/h
O-NO (5 Bft)
100,00 %
Durchschnitt _ 15,9 C 17,6 C 12,7 C 68 % 1025,6 hPa #0,0 l/m #11:52 h #0 min. 496 W/m 12,8 km/h (3 Bft) 97,34 %
© 2023 W. Hausmann